<?xml version="1.0" encoding="UTF-8" standalone="yes"?>
<gpx
 xmlns="http://www.topografix.com/GPX/1/1"
 creator="OziExplorer Version 3956f - http://www.oziexplorer.com"
 version="1.1"
 xmlns:xsi="http://www.w3.org/2001/XMLSchema-instance"
 xsi:schemaLocation="http://www.topografix.com/GPX/1/1 http://www.topografix.com/GPX/1/1/gpx.xsd">
<metadata>
 <time>2024-03-15T14:02:16Z</time>
 <bounds minlat="30.892370" minlon="34.887300" maxlat="30.990260" maxlon="34.985610"/>
</metadata>
<wpt lat="30.9888198" lon="34.9114886">
 <time>2024-03-15T16:01:30.635Z</time>
 <name>St\Fin</name>
 <sym>Bike Trail</sym>
</wpt>
<wpt lat="30.8932161" lon="34.9161756">
 <time>2024-03-15T16:01:30.660Z</time>
 <name>Tatspit3</name>
 <sym>Flag, Red</sym>
</wpt>
<wpt lat="30.9641284" lon="34.9650133">
 <time>2024-03-15T16:01:30.661Z</time>
 <name>Tatspit4</name>
 <sym>Flag, Red</sym>
</wpt>
<wpt lat="30.9740100" lon="34.8873000">
 <time>2024-03-15T16:01:30.662Z</time>
 <name>Helmoniot</name>
 <sym>Flag, Red</sym>
</wpt>
<wpt lat="30.9276600" lon="34.9307600">
 <time>2024-03-15T16:01:30.663Z</time>
 <name>Tatspit1</name>
 <sym>Flag, Red</sym>
</wpt>
<wpt lat="30.9664900" lon="34.9670600">
 <time>2024-03-15T16:01:30.664Z</time>
 <name>Vlevo-Singl</name>
 <sym>Flag, Red</sym>
</wpt>
<wpt lat="30.9025500" lon="34.9173500">
 <time>2024-03-15T16:01:30.664Z</time>
 <name>Tatspit2</name>
 <sym>Flag, Red</sym>
</wpt>
<wpt lat="30.9888200" lon="34.9114890">
 <time>2024-03-15T16:01:30.666Z</time>
 <name>St\Fin</name>
 <sym>Flag, Red</sym>
</wpt>
<wpt lat="30.8932160" lon="34.9161760">
 <time>2024-03-15T16:01:30.667Z</time>
 <name>2-TATSPIT2</name>
 <sym>Flag, Red</sym>
</wpt>
<wpt lat="30.9641280" lon="34.9650130">
 <time>2024-03-15T16:01:30.668Z</time>
 <name>3-TATSPIT3</name>
 <sym>Flag, Red</sym>
</wpt>
<wpt lat="30.9740100" lon="34.8873000">
 <time>2024-03-15T16:01:30.668Z</time>
 <name>Helmoniot</name>
 <sym>Flag, Red</sym>
</wpt>
<wpt lat="30.9276600" lon="34.9307600">
 <time>2024-03-15T16:01:30.669Z</time>
 <name>Tatspit1</name>
 <sym>Flag, Red</sym>
</wpt>
<wpt lat="30.9664900" lon="34.9670600">
 <time>2024-03-15T16:01:30.669Z</time>
 <name>Vlevo-Singl</name>
 <sym>Flag, Red</sym>
</wpt>
<wpt lat="30.9607900" lon="34.9825300">
 <time>2024-03-15T16:01:30.670Z</time>
 <name>EsimMeuvanim</name>
 <sym>Flag, Red</sym>
</wpt>
<trk>
 <name>MahtGadol+Helm_44 km.720m</name>
 <desc>MahtGadol+Helm_44 km.720m</desc>
<trkseg>
<trkpt lat="30.9899800" lon="34.9121900">
<ele>452.250000</ele>
<time>2024-03-15T16:01:30.670Z</time>
</trkpt>
<trkpt lat="30.9901200" lon="34.9119500">
<ele>454.250000</ele>
<time>2024-03-15T16:01:30.670Z</time>
</trkpt>
<trkpt lat="30.9902600" lon="34.9117500">
<ele>457.160004</ele>
<time>2024-03-15T16:01:30.670Z</time>
</trkpt>
<trkpt lat="30.9902500" lon="34.9117200">
<ele>457.239990</ele>
<time>2024-03-15T16:01:30.670Z</time>
</trkpt>
<trkpt lat="30.9902500" lon="34.9115600">
<ele>457.980011</ele>
<time>2024-03-15T16:01:30.670Z</time>
</trkpt>
<trkpt lat="30.9902100" lon="34.9113500">
<ele>458.379974</ele>
<time>2024-03-15T16:01:30.670Z</time>
</trkpt>
<trkpt lat="30.9901900" lon="34.9110300">
<ele>458.910004</ele>
<time>2024-03-15T16:01:30.670Z</time>
</trkpt>
<trkpt lat="30.9901900" lon="34.9108500">
<ele>456.250000</ele>
<time>2024-03-15T16:01:30.670Z</time>
</trkpt>
<trkpt lat="30.9902300" lon="34.9104700">
<ele>452.649994</ele>
<time>2024-03-15T16:01:30.670Z</time>
</trkpt>
<trkpt lat="30.9902500" lon="34.9097900">
<ele>454.190002</ele>
<time>2024-03-15T16:01:30.670Z</time>
</trkpt>
<trkpt lat="30.9882100" lon="34.9084200">
<ele>464.250000</ele>
<time>2024-03-15T16:01:30.670Z</time>
</trkpt>
<trkpt lat="30.9874700" lon="34.9078500">
<ele>454.399994</ele>
<time>2024-03-15T16:01:30.670Z</time>
</trkpt>
<trkpt lat="30.9869100" lon="34.9072500">
<ele>455.959991</ele>
<time>2024-03-15T16:01:30.670Z</time>
</trkpt>
<trkpt lat="30.9867500" lon="34.9069000">
<ele>457.019989</ele>
<time>2024-03-15T16:01:30.670Z</time>
</trkpt>
<trkpt lat="30.9866900" lon="34.9063700">
<ele>454.699982</ele>
<time>2024-03-15T16:01:30.670Z</time>
</trkpt>
<trkpt lat="30.9867000" lon="34.9051400">
<ele>450.270020</ele>
<time>2024-03-15T16:01:30.670Z</time>
</trkpt>
<trkpt lat="30.9864400" lon="34.9040300">
<ele>455.290009</ele>
<time>2024-03-15T16:01:30.670Z</time>
</trkpt>
<trkpt lat="30.9862200" lon="34.9035400">
<ele>458.249969</ele>
<time>2024-03-15T16:01:30.670Z</time>
</trkpt>
<trkpt lat="30.9858800" lon="34.9024100">
<ele>452.829987</ele>
<time>2024-03-15T16:01:30.670Z</time>
</trkpt>
<trkpt lat="30.9855500" lon="34.9014600">
<ele>451.500000</ele>
<time>2024-03-15T16:01:30.670Z</time>
</trkpt>
<trkpt lat="30.9857000" lon="34.9003700">
<ele>448.390015</ele>
<time>2024-03-15T16:01:30.670Z</time>
</trkpt>
<trkpt lat="30.9856800" lon="34.8999800">
<ele>450.490021</ele>
<time>2024-03-15T16:01:30.670Z</time>
</trkpt>
<trkpt lat="30.9855200" lon="34.8995100">
<ele>454.839996</ele>
<time>2024-03-15T16:01:30.670Z</time>
</trkpt>
<trkpt lat="30.9853700" lon="34.8992800">
<ele>453.339996</ele>
<time>2024-03-15T16:01:30.670Z</time>
</trkpt>
<trkpt lat="30.9852500" lon="34.8991900">
<ele>451.109985</ele>
<time>2024-03-15T16:01:30.670Z</time>
</trkpt>
<trkpt lat="30.9851100" lon="34.8991100">
<ele>450.769989</ele>
<time>2024-03-15T16:01:30.670Z</time>
</trkpt>
<trkpt lat="30.9849500" lon="34.8990100">
<ele>451.290009</ele>
<time>2024-03-15T16:01:30.670Z</time>
</trkpt>
<trkpt lat="30.9847600" lon="34.8988700">
<ele>449.550018</ele>
<time>2024-03-15T16:01:30.670Z</time>
</trkpt>
<trkpt lat="30.9845000" lon="34.8987900">
<ele>447.399994</ele>
<time>2024-03-15T16:01:30.670Z</time>
</trkpt>
<trkpt lat="30.9841900" lon="34.8987700">
<ele>447.920013</ele>
<time>2024-03-15T16:01:30.670Z</time>
</trkpt>
<trkpt lat="30.9839900" lon="34.8987000">
<ele>450.339996</ele>
<time>2024-03-15T16:01:30.670Z</time>
</trkpt>
<trkpt lat="30.9833700" lon="34.8982900">
<ele>457.709991</ele>
<time>2024-03-15T16:01:30.670Z</time>
</trkpt>
<trkpt lat="30.9830900" lon="34.8982100">
<ele>456.579987</ele>
<time>2024-03-15T16:01:30.670Z</time>
</trkpt>
<trkpt lat="30.9830100" lon="34.8980000">
<ele>457.730011</ele>
<time>2024-03-15T16:01:30.670Z</time>
</trkpt>
<trkpt lat="30.9829400" lon="34.8975300">
<ele>462.839996</ele>
<time>2024-03-15T16:01:30.670Z</time>
</trkpt>
<trkpt lat="30.9829000" lon="34.8972900">
<ele>464.059998</ele>
<time>2024-03-15T16:01:30.670Z</time>
</trkpt>
<trkpt lat="30.9831600" lon="34.8963600">
<ele>467.220001</ele>
<time>2024-03-15T16:01:30.670Z</time>
</trkpt>
<trkpt lat="30.9831800" lon="34.8960800">
<ele>467.709991</ele>
<time>2024-03-15T16:01:30.670Z</time>
</trkpt>
<trkpt lat="30.9831800" lon="34.8958800">
<ele>467.390015</ele>
<time>2024-03-15T16:01:30.670Z</time>
</trkpt>
<trkpt lat="30.9832000" lon="34.8954900">
<ele>466.169983</ele>
<time>2024-03-15T16:01:30.670Z</time>
</trkpt>
<trkpt lat="30.9831800" lon="34.8952800">
<ele>466.989990</ele>
<time>2024-03-15T16:01:30.670Z</time>
</trkpt>
<trkpt lat="30.9831100" lon="34.8949500">
<ele>469.880005</ele>
<time>2024-03-15T16:01:30.670Z</time>
</trkpt>
<trkpt lat="30.9830300" lon="34.8947800">
<ele>472.299988</ele>
<time>2024-03-15T16:01:30.670Z</time>
</trkpt>
<trkpt lat="30.9829000" lon="34.8947000">
<ele>472.729980</ele>
<time>2024-03-15T16:01:30.670Z</time>
</trkpt>
<trkpt lat="30.9825700" lon="34.8945300">
<ele>475.459991</ele>
<time>2024-03-15T16:01:30.670Z</time>
</trkpt>
<trkpt lat="30.9822200" lon="34.8941600">
<ele>476.770020</ele>
<time>2024-03-15T16:01:30.670Z</time>
</trkpt>
<trkpt lat="30.9818900" lon="34.8939000">
<ele>456.230011</ele>
<time>2024-03-15T16:01:30.670Z</time>
</trkpt>
<trkpt lat="30.9818300" lon="34.8938300">
<ele>452.800018</ele>
<time>2024-03-15T16:01:30.670Z</time>
</trkpt>
<trkpt lat="30.9816500" lon="34.8933700">
<ele>446.239990</ele>
<time>2024-03-15T16:01:30.670Z</time>
</trkpt>
<trkpt lat="30.9813800" lon="34.8930900">
<ele>450.700012</ele>
<time>2024-03-15T16:01:30.670Z</time>
</trkpt>
<trkpt lat="30.9812500" lon="34.8930600">
<ele>451.970001</ele>
<time>2024-03-15T16:01:30.670Z</time>
</trkpt>
<trkpt lat="30.9810500" lon="34.8928500">
<ele>454.149994</ele>
<time>2024-03-15T16:01:30.670Z</time>
</trkpt>
<trkpt lat="30.9806100" lon="34.8926600">
<ele>451.010010</ele>
<time>2024-03-15T16:01:30.670Z</time>
</trkpt>
<trkpt lat="30.9800000" lon="34.8922500">
<ele>455.500000</ele>
<time>2024-03-15T16:01:30.670Z</time>
</trkpt>
<trkpt lat="30.9797400" lon="34.8922500">
<ele>450.910004</ele>
<time>2024-03-15T16:01:30.670Z</time>
</trkpt>
<trkpt lat="30.9796300" lon="34.8921300">
<ele>452.440002</ele>
<time>2024-03-15T16:01:30.670Z</time>
</trkpt>
<trkpt lat="30.9793200" lon="34.8921400">
<ele>449.850006</ele>
<time>2024-03-15T16:01:30.670Z</time>
</trkpt>
<trkpt lat="30.9791000" lon="34.8921700">
<ele>450.800018</ele>
<time>2024-03-15T16:01:30.670Z</time>
</trkpt>
<trkpt lat="30.9787000" lon="34.8923100">
<ele>457.540009</ele>
<time>2024-03-15T16:01:30.670Z</time>
</trkpt>
<trkpt lat="30.9786500" lon="34.8923700">
<ele>457.690002</ele>
<time>2024-03-15T16:01:30.670Z</time>
</trkpt>
<trkpt lat="30.9785300" lon="34.8926400">
<ele>454.209991</ele>
<time>2024-03-15T16:01:30.670Z</time>
</trkpt>
<trkpt lat="30.9784500" lon="34.8927200">
<ele>453.660004</ele>
<time>2024-03-15T16:01:30.670Z</time>
</trkpt>
<trkpt lat="30.9779900" lon="34.8927900">
<ele>453.750000</ele>
<time>2024-03-15T16:01:30.670Z</time>
</trkpt>
<trkpt lat="30.9779300" lon="34.8928000">
<ele>452.720001</ele>
<time>2024-03-15T16:01:30.670Z</time>
</trkpt>
<trkpt lat="30.9778400" lon="34.8928600">
<ele>451.610016</ele>
<time>2024-03-15T16:01:30.670Z</time>
</trkpt>
<trkpt lat="30.9779300" lon="34.8927900">
<ele>452.729980</ele>
<time>2024-03-15T16:01:30.670Z</time>
</trkpt>
<trkpt lat="30.9779300" lon="34.8927800">
<ele>452.739990</ele>
<time>2024-03-15T16:01:30.670Z</time>
</trkpt>
<trkpt lat="30.9779200" lon="34.8927700">
<ele>452.559998</ele>
<time>2024-03-15T16:01:30.670Z</time>
</trkpt>
<trkpt lat="30.9779600" lon="34.8926800">
<ele>453.390015</ele>
<time>2024-03-15T16:01:30.670Z</time>
</trkpt>
<trkpt lat="30.9780200" lon="34.8925200">
<ele>455.049988</ele>
<time>2024-03-15T16:01:30.670Z</time>
</trkpt>
<trkpt lat="30.9780900" lon="34.8922200">
<ele>459.549988</ele>
<time>2024-03-15T16:01:30.670Z</time>
</trkpt>
<trkpt lat="30.9781000" lon="34.8921900">
<ele>460.410004</ele>
<time>2024-03-15T16:01:30.670Z</time>
</trkpt>
<trkpt lat="30.9781000" lon="34.8921900">
<ele>460.410004</ele>
<time>2024-03-15T16:01:30.670Z</time>
</trkpt>
<trkpt lat="30.9781000" lon="34.8921700">
<ele>460.900024</ele>
<time>2024-03-15T16:01:30.670Z</time>
</trkpt>
<trkpt lat="30.9780900" lon="34.8921100">
<ele>462.220001</ele>
<time>2024-03-15T16:01:30.670Z</time>
</trkpt>
<trkpt lat="30.9777800" lon="34.8917400">
<ele>467.419983</ele>
<time>2024-03-15T16:01:30.670Z</time>
</trkpt>
<trkpt lat="30.9777200" lon="34.8916900">
<ele>468.529999</ele>
<time>2024-03-15T16:01:30.670Z</time>
</trkpt>
<trkpt lat="30.9776200" lon="34.8916200">
<ele>468.589996</ele>
<time>2024-03-15T16:01:30.670Z</time>
</trkpt>
<trkpt lat="30.9775500" lon="34.8915800">
<ele>468.319977</ele>
<time>2024-03-15T16:01:30.670Z</time>
</trkpt>
<trkpt lat="30.9775500" lon="34.8915800">
<ele>468.319977</ele>
<time>2024-03-15T16:01:30.670Z</time>
</trkpt>
<trkpt lat="30.9773100" lon="34.8913500">
<ele>469.010010</ele>
<time>2024-03-15T16:01:30.670Z</time>
</trkpt>
<trkpt lat="30.9770100" lon="34.8908800">
<ele>469.800018</ele>
<time>2024-03-15T16:01:30.670Z</time>
</trkpt>
<trkpt lat="30.9767100" lon="34.8904000">
<ele>470.429993</ele>
<time>2024-03-15T16:01:30.670Z</time>
</trkpt>
<trkpt lat="30.9766500" lon="34.8900800">
<ele>474.489990</ele>
<time>2024-03-15T16:01:30.670Z</time>
</trkpt>
<trkpt lat="30.9759100" lon="34.8896200">
<ele>475.859985</ele>
<time>2024-03-15T16:01:30.670Z</time>
</trkpt>
<trkpt lat="30.9750500" lon="34.8893900">
<ele>478.000000</ele>
<time>2024-03-15T16:01:30.670Z</time>
</trkpt>
<trkpt lat="30.9744800" lon="34.8890600">
<ele>474.800018</ele>
<time>2024-03-15T16:01:30.670Z</time>
</trkpt>
<trkpt lat="30.9743400" lon="34.8883000">
<ele>484.510010</ele>
<time>2024-03-15T16:01:30.670Z</time>
</trkpt>
<trkpt lat="30.9744100" lon="34.8887900">
<ele>475.610016</ele>
<time>2024-03-15T16:01:30.670Z</time>
</trkpt>
<trkpt lat="30.9744800" lon="34.8890500">
<ele>474.819977</ele>
<time>2024-03-15T16:01:30.670Z</time>
</trkpt>
<trkpt lat="30.9752200" lon="34.8894600">
<ele>476.950012</ele>
<time>2024-03-15T16:01:30.670Z</time>
</trkpt>
<trkpt lat="30.9757100" lon="34.8896000">
<ele>475.889984</ele>
<time>2024-03-15T16:01:30.670Z</time>
</trkpt>
<trkpt lat="30.9762200" lon="34.8898100">
<ele>473.170013</ele>
<time>2024-03-15T16:01:30.670Z</time>
</trkpt>
<trkpt lat="30.9766400" lon="34.8900700">
<ele>474.619995</ele>
<time>2024-03-15T16:01:30.670Z</time>
</trkpt>
<trkpt lat="30.9766900" lon="34.8903300">
<ele>470.790009</ele>
<time>2024-03-15T16:01:30.670Z</time>
</trkpt>
<trkpt lat="30.9769800" lon="34.8908100">
<ele>469.979980</ele>
<time>2024-03-15T16:01:30.670Z</time>
</trkpt>
<trkpt lat="30.9772600" lon="34.8912800">
<ele>469.540009</ele>
<time>2024-03-15T16:01:30.670Z</time>
</trkpt>
<trkpt lat="30.9775400" lon="34.8915700">
<ele>468.250000</ele>
<time>2024-03-15T16:01:30.670Z</time>
</trkpt>
<trkpt lat="30.9775400" lon="34.8915700">
<ele>468.250000</ele>
<time>2024-03-15T16:01:30.670Z</time>
</trkpt>
<trkpt lat="30.9777200" lon="34.8916900">
<ele>468.529999</ele>
<time>2024-03-15T16:01:30.670Z</time>
</trkpt>
<trkpt lat="30.9777800" lon="34.8917400">
<ele>467.419983</ele>
<time>2024-03-15T16:01:30.670Z</time>
</trkpt>
<trkpt lat="30.9779400" lon="34.8919300">
<ele>464.969971</ele>
<time>2024-03-15T16:01:30.670Z</time>
</trkpt>
<trkpt lat="30.9780900" lon="34.8921100">
<ele>462.220001</ele>
<time>2024-03-15T16:01:30.670Z</time>
</trkpt>
<trkpt lat="30.9781000" lon="34.8921700">
<ele>460.900024</ele>
<time>2024-03-15T16:01:30.670Z</time>
</trkpt>
<trkpt lat="30.9780900" lon="34.8922200">
<ele>459.549988</ele>
<time>2024-03-15T16:01:30.670Z</time>
</trkpt>
<trkpt lat="30.9780600" lon="34.8923600">
<ele>457.560028</ele>
<time>2024-03-15T16:01:30.670Z</time>
</trkpt>
<trkpt lat="30.9780600" lon="34.8923600">
<ele>457.560028</ele>
<time>2024-03-15T16:01:30.670Z</time>
</trkpt>
<trkpt lat="30.9780200" lon="34.8925200">
<ele>455.049988</ele>
<time>2024-03-15T16:01:30.670Z</time>
</trkpt>
<trkpt lat="30.9779600" lon="34.8926800">
<ele>453.390015</ele>
<time>2024-03-15T16:01:30.670Z</time>
</trkpt>
<trkpt lat="30.9779100" lon="34.8928000">
<ele>452.389984</ele>
<time>2024-03-15T16:01:30.670Z</time>
</trkpt>
<trkpt lat="30.9777700" lon="34.8929300">
<ele>451.559998</ele>
<time>2024-03-15T16:01:30.670Z</time>
</trkpt>
<trkpt lat="30.9777400" lon="34.8929900">
<ele>451.809998</ele>
<time>2024-03-15T16:01:30.670Z</time>
</trkpt>
<trkpt lat="30.9777500" lon="34.8929900">
<ele>451.940002</ele>
<time>2024-03-15T16:01:30.670Z</time>
</trkpt>
<trkpt lat="30.9771000" lon="34.8941600">
<ele>450.459991</ele>
<time>2024-03-15T16:01:30.670Z</time>
</trkpt>
<trkpt lat="30.9769900" lon="34.8945700">
<ele>450.070007</ele>
<time>2024-03-15T16:01:30.670Z</time>
</trkpt>
<trkpt lat="30.9765000" lon="34.8957100">
<ele>439.419983</ele>
<time>2024-03-15T16:01:30.670Z</time>
</trkpt>
<trkpt lat="30.9762400" lon="34.8959400">
<ele>446.090027</ele>
<time>2024-03-15T16:01:30.670Z</time>
</trkpt>
<trkpt lat="30.9757900" lon="34.8961900">
<ele>452.070007</ele>
<time>2024-03-15T16:01:30.670Z</time>
</trkpt>
<trkpt lat="30.9749700" lon="34.8969500">
<ele>459.160004</ele>
<time>2024-03-15T16:01:30.670Z</time>
</trkpt>
<trkpt lat="30.9746700" lon="34.8973600">
<ele>462.659973</ele>
<time>2024-03-15T16:01:30.670Z</time>
</trkpt>
<trkpt lat="30.9746300" lon="34.8977500">
<ele>469.899994</ele>
<time>2024-03-15T16:01:30.670Z</time>
</trkpt>
<trkpt lat="30.9744800" lon="34.8979500">
<ele>473.809998</ele>
<time>2024-03-15T16:01:30.670Z</time>
</trkpt>
<trkpt lat="30.9740400" lon="34.8990300">
<ele>468.200012</ele>
<time>2024-03-15T16:01:30.670Z</time>
</trkpt>
<trkpt lat="30.9704600" lon="34.8978100">
<ele>463.800018</ele>
<time>2024-03-15T16:01:30.670Z</time>
</trkpt>
<trkpt lat="30.9695100" lon="34.8979200">
<ele>466.660004</ele>
<time>2024-03-15T16:01:30.670Z</time>
</trkpt>
<trkpt lat="30.9691500" lon="34.8979100">
<ele>464.769989</ele>
<time>2024-03-15T16:01:30.670Z</time>
</trkpt>
<trkpt lat="30.9688100" lon="34.8978800">
<ele>463.250000</ele>
<time>2024-03-15T16:01:30.670Z</time>
</trkpt>
<trkpt lat="30.9687800" lon="34.8979900">
<ele>463.880005</ele>
<time>2024-03-15T16:01:30.670Z</time>
</trkpt>
<trkpt lat="30.9688100" lon="34.8981300">
<ele>465.080017</ele>
<time>2024-03-15T16:01:30.670Z</time>
</trkpt>
<trkpt lat="30.9688500" lon="34.8983300">
<ele>467.409973</ele>
<time>2024-03-15T16:01:30.670Z</time>
</trkpt>
<trkpt lat="30.9688700" lon="34.8984300">
<ele>469.070007</ele>
<time>2024-03-15T16:01:30.670Z</time>
</trkpt>
<trkpt lat="30.9690500" lon="34.8986600">
<ele>475.220001</ele>
<time>2024-03-15T16:01:30.670Z</time>
</trkpt>
<trkpt lat="30.9690800" lon="34.8990900">
<ele>478.240021</ele>
<time>2024-03-15T16:01:30.670Z</time>
</trkpt>
<trkpt lat="30.9694100" lon="34.8992200">
<ele>478.320007</ele>
<time>2024-03-15T16:01:30.670Z</time>
</trkpt>
<trkpt lat="30.9695400" lon="34.8993100">
<ele>478.859985</ele>
<time>2024-03-15T16:01:30.670Z</time>
</trkpt>
<trkpt lat="30.9696100" lon="34.8995100">
<ele>479.359985</ele>
<time>2024-03-15T16:01:30.670Z</time>
</trkpt>
<trkpt lat="30.9698200" lon="34.8997900">
<ele>474.829987</ele>
<time>2024-03-15T16:01:30.670Z</time>
</trkpt>
<trkpt lat="30.9704600" lon="34.9003000">
<ele>470.940002</ele>
<time>2024-03-15T16:01:30.670Z</time>
</trkpt>
<trkpt lat="30.9704600" lon="34.9004500">
<ele>473.100006</ele>
<time>2024-03-15T16:01:30.670Z</time>
</trkpt>
<trkpt lat="30.9702300" lon="34.9007700">
<ele>474.829987</ele>
<time>2024-03-15T16:01:30.670Z</time>
</trkpt>
<trkpt lat="30.9701000" lon="34.9010600">
<ele>474.040009</ele>
<time>2024-03-15T16:01:30.670Z</time>
</trkpt>
<trkpt lat="30.9700500" lon="34.9014100">
<ele>470.879974</ele>
<time>2024-03-15T16:01:30.670Z</time>
</trkpt>
<trkpt lat="30.9700400" lon="34.9016500">
<ele>469.370026</ele>
<time>2024-03-15T16:01:30.670Z</time>
</trkpt>
<trkpt lat="30.9699600" lon="34.9019700">
<ele>465.209991</ele>
<time>2024-03-15T16:01:30.670Z</time>
</trkpt>
<trkpt lat="30.9692800" lon="34.9029600">
<ele>471.609985</ele>
<time>2024-03-15T16:01:30.670Z</time>
</trkpt>
<trkpt lat="30.9691500" lon="34.9032300">
<ele>469.760010</ele>
<time>2024-03-15T16:01:30.670Z</time>
</trkpt>
<trkpt lat="30.9691300" lon="34.9033600">
<ele>469.129974</ele>
<time>2024-03-15T16:01:30.670Z</time>
</trkpt>
<trkpt lat="30.9688200" lon="34.9038200">
<ele>471.940002</ele>
<time>2024-03-15T16:01:30.670Z</time>
</trkpt>
<trkpt lat="30.9682200" lon="34.9043100">
<ele>473.309998</ele>
<time>2024-03-15T16:01:30.670Z</time>
</trkpt>
<trkpt lat="30.9676600" lon="34.9044700">
<ele>476.420013</ele>
<time>2024-03-15T16:01:30.670Z</time>
</trkpt>
<trkpt lat="30.9674100" lon="34.9046200">
<ele>477.110016</ele>
<time>2024-03-15T16:01:30.670Z</time>
</trkpt>
<trkpt lat="30.9669300" lon="34.9047900">
<ele>476.260010</ele>
<time>2024-03-15T16:01:30.670Z</time>
</trkpt>
<trkpt lat="30.9666600" lon="34.9049800">
<ele>483.000000</ele>
<time>2024-03-15T16:01:30.670Z</time>
</trkpt>
<trkpt lat="30.9664200" lon="34.9053600">
<ele>489.509979</ele>
<time>2024-03-15T16:01:30.670Z</time>
</trkpt>
<trkpt lat="30.9657800" lon="34.9056900">
<ele>487.279999</ele>
<time>2024-03-15T16:01:30.670Z</time>
</trkpt>
<trkpt lat="30.9656100" lon="34.9059000">
<ele>483.580017</ele>
<time>2024-03-15T16:01:30.670Z</time>
</trkpt>
<trkpt lat="30.9649300" lon="34.9064800">
<ele>482.760010</ele>
<time>2024-03-15T16:01:30.670Z</time>
</trkpt>
<trkpt lat="30.9649000" lon="34.9065900">
<ele>481.470001</ele>
<time>2024-03-15T16:01:30.670Z</time>
</trkpt>
<trkpt lat="30.9645400" lon="34.9068900">
<ele>479.050018</ele>
<time>2024-03-15T16:01:30.670Z</time>
</trkpt>
<trkpt lat="30.9644100" lon="34.9072300">
<ele>479.350006</ele>
<time>2024-03-15T16:01:30.670Z</time>
</trkpt>
<trkpt lat="30.9643800" lon="34.9074900">
<ele>478.580017</ele>
<time>2024-03-15T16:01:30.670Z</time>
</trkpt>
<trkpt lat="30.9643500" lon="34.9074900">
<ele>478.380005</ele>
<time>2024-03-15T16:01:30.670Z</time>
</trkpt>
<trkpt lat="30.9638400" lon="34.9074700">
<ele>473.860016</ele>
<time>2024-03-15T16:01:30.670Z</time>
</trkpt>
<trkpt lat="30.9634100" lon="34.9074800">
<ele>479.229980</ele>
<time>2024-03-15T16:01:30.670Z</time>
</trkpt>
<trkpt lat="30.9627100" lon="34.9070900">
<ele>482.770020</ele>
<time>2024-03-15T16:01:30.670Z</time>
</trkpt>
<trkpt lat="30.9623000" lon="34.9069700">
<ele>487.860016</ele>
<time>2024-03-15T16:01:30.670Z</time>
</trkpt>
<trkpt lat="30.9620500" lon="34.9069700">
<ele>491.440002</ele>
<time>2024-03-15T16:01:30.670Z</time>
</trkpt>
<trkpt lat="30.9619700" lon="34.9070700">
<ele>491.890015</ele>
<time>2024-03-15T16:01:30.670Z</time>
</trkpt>
<trkpt lat="30.9619500" lon="34.9073000">
<ele>490.730011</ele>
<time>2024-03-15T16:01:30.670Z</time>
</trkpt>
<trkpt lat="30.9616400" lon="34.9073100">
<ele>491.460022</ele>
<time>2024-03-15T16:01:30.670Z</time>
</trkpt>
<trkpt lat="30.9606800" lon="34.9075200">
<ele>485.369995</ele>
<time>2024-03-15T16:01:30.670Z</time>
</trkpt>
<trkpt lat="30.9601800" lon="34.9077500">
<ele>486.410004</ele>
<time>2024-03-15T16:01:30.670Z</time>
</trkpt>
<trkpt lat="30.9589000" lon="34.9080300">
<ele>500.559998</ele>
<time>2024-03-15T16:01:30.670Z</time>
</trkpt>
<trkpt lat="30.9585800" lon="34.9081700">
<ele>508.660004</ele>
<time>2024-03-15T16:01:30.670Z</time>
</trkpt>
<trkpt lat="30.9581700" lon="34.9082200">
<ele>511.679993</ele>
<time>2024-03-15T16:01:30.670Z</time>
</trkpt>
<trkpt lat="30.9578200" lon="34.9083300">
<ele>509.400024</ele>
<time>2024-03-15T16:01:30.670Z</time>
</trkpt>
<trkpt lat="30.9552800" lon="34.9083700">
<ele>539.239990</ele>
<time>2024-03-15T16:01:30.670Z</time>
</trkpt>
<trkpt lat="30.9550300" lon="34.9084800">
<ele>544.570007</ele>
<time>2024-03-15T16:01:30.670Z</time>
</trkpt>
<trkpt lat="30.9549200" lon="34.9086100">
<ele>546.409973</ele>
<time>2024-03-15T16:01:30.670Z</time>
</trkpt>
<trkpt lat="30.9544400" lon="34.9087200">
<ele>547.849976</ele>
<time>2024-03-15T16:01:30.670Z</time>
</trkpt>
<trkpt lat="30.9538500" lon="34.9086900">
<ele>555.980042</ele>
<time>2024-03-15T16:01:30.670Z</time>
</trkpt>
<trkpt lat="30.9533600" lon="34.9087600">
<ele>551.470032</ele>
<time>2024-03-15T16:01:30.670Z</time>
</trkpt>
<trkpt lat="30.9530900" lon="34.9090200">
<ele>544.809998</ele>
<time>2024-03-15T16:01:30.670Z</time>
</trkpt>
<trkpt lat="30.9526200" lon="34.9092200">
<ele>543.080017</ele>
<time>2024-03-15T16:01:30.670Z</time>
</trkpt>
<trkpt lat="30.9521300" lon="34.9092400">
<ele>529.539978</ele>
<time>2024-03-15T16:01:30.670Z</time>
</trkpt>
<trkpt lat="30.9515200" lon="34.9093000">
<ele>522.119995</ele>
<time>2024-03-15T16:01:30.670Z</time>
</trkpt>
<trkpt lat="30.9507700" lon="34.9092700">
<ele>545.770020</ele>
<time>2024-03-15T16:01:30.670Z</time>
</trkpt>
<trkpt lat="30.9506800" lon="34.9093000">
<ele>546.880005</ele>
<time>2024-03-15T16:01:30.670Z</time>
</trkpt>
<trkpt lat="30.9505700" lon="34.9093600">
<ele>547.209961</ele>
<time>2024-03-15T16:01:30.670Z</time>
</trkpt>
<trkpt lat="30.9498200" lon="34.9094200">
<ele>552.980042</ele>
<time>2024-03-15T16:01:30.670Z</time>
</trkpt>
<trkpt lat="30.9494500" lon="34.9096100">
<ele>558.099976</ele>
<time>2024-03-15T16:01:30.670Z</time>
</trkpt>
<trkpt lat="30.9492300" lon="34.9102300">
<ele>562.440002</ele>
<time>2024-03-15T16:01:30.670Z</time>
</trkpt>
<trkpt lat="30.9490300" lon="34.9104900">
<ele>564.000000</ele>
<time>2024-03-15T16:01:30.670Z</time>
</trkpt>
<trkpt lat="30.9485100" lon="34.9107600">
<ele>563.089966</ele>
<time>2024-03-15T16:01:30.670Z</time>
</trkpt>
<trkpt lat="30.9474400" lon="34.9110800">
<ele>552.099976</ele>
<time>2024-03-15T16:01:30.670Z</time>
</trkpt>
<trkpt lat="30.9471800" lon="34.9113400">
<ele>549.880005</ele>
<time>2024-03-15T16:01:30.670Z</time>
</trkpt>
<trkpt lat="30.9470500" lon="34.9113700">
<ele>553.039978</ele>
<time>2024-03-15T16:01:30.670Z</time>
</trkpt>
<trkpt lat="30.9466800" lon="34.9116500">
<ele>565.190002</ele>
<time>2024-03-15T16:01:30.670Z</time>
</trkpt>
<trkpt lat="30.9458900" lon="34.9117700">
<ele>567.559998</ele>
<time>2024-03-15T16:01:30.670Z</time>
</trkpt>
<trkpt lat="30.9455900" lon="34.9118800">
<ele>573.390015</ele>
<time>2024-03-15T16:01:30.670Z</time>
</trkpt>
<trkpt lat="30.9453800" lon="34.9119000">
<ele>577.519958</ele>
<time>2024-03-15T16:01:30.670Z</time>
</trkpt>
<trkpt lat="30.9452200" lon="34.9119000">
<ele>579.359985</ele>
<time>2024-03-15T16:01:30.670Z</time>
</trkpt>
<trkpt lat="30.9445500" lon="34.9112800">
<ele>567.190002</ele>
<time>2024-03-15T16:01:30.670Z</time>
</trkpt>
<trkpt lat="30.9443500" lon="34.9112200">
<ele>567.200012</ele>
<time>2024-03-15T16:01:30.670Z</time>
</trkpt>
<trkpt lat="30.9441700" lon="34.9113100">
<ele>569.260010</ele>
<time>2024-03-15T16:01:30.670Z</time>
</trkpt>
<trkpt lat="30.9440500" lon="34.9116200">
<ele>571.299988</ele>
<time>2024-03-15T16:01:30.670Z</time>
</trkpt>
<trkpt lat="30.9439300" lon="34.9117700">
<ele>572.669983</ele>
<time>2024-03-15T16:01:30.670Z</time>
</trkpt>
<trkpt lat="30.9438000" lon="34.9123800">
<ele>575.950012</ele>
<time>2024-03-15T16:01:30.670Z</time>
</trkpt>
<trkpt lat="30.9435900" lon="34.9126700">
<ele>572.559998</ele>
<time>2024-03-15T16:01:30.670Z</time>
</trkpt>
<trkpt lat="30.9424900" lon="34.9134300">
<ele>568.000000</ele>
<time>2024-03-15T16:01:30.670Z</time>
</trkpt>
<trkpt lat="30.9418300" lon="34.9142500">
<ele>564.219971</ele>
<time>2024-03-15T16:01:30.670Z</time>
</trkpt>
<trkpt lat="30.9412400" lon="34.9148400">
<ele>556.429993</ele>
<time>2024-03-15T16:01:30.670Z</time>
</trkpt>
<trkpt lat="30.9411700" lon="34.9150100">
<ele>555.750000</ele>
<time>2024-03-15T16:01:30.670Z</time>
</trkpt>
<trkpt lat="30.9407600" lon="34.9152700">
<ele>557.570007</ele>
<time>2024-03-15T16:01:30.670Z</time>
</trkpt>
<trkpt lat="30.9404600" lon="34.9157300">
<ele>559.760010</ele>
<time>2024-03-15T16:01:30.670Z</time>
</trkpt>
<trkpt lat="30.9399200" lon="34.9162900">
<ele>569.559998</ele>
<time>2024-03-15T16:01:30.670Z</time>
</trkpt>
<trkpt lat="30.9398800" lon="34.9164700">
<ele>571.380005</ele>
<time>2024-03-15T16:01:30.670Z</time>
</trkpt>
<trkpt lat="30.9398100" lon="34.9164800">
<ele>572.020020</ele>
<time>2024-03-15T16:01:30.670Z</time>
</trkpt>
<trkpt lat="30.9394500" lon="34.9169200">
<ele>575.049988</ele>
<time>2024-03-15T16:01:30.670Z</time>
</trkpt>
<trkpt lat="30.9384400" lon="34.9177500">
<ele>557.020020</ele>
<time>2024-03-15T16:01:30.670Z</time>
</trkpt>
<trkpt lat="30.9383400" lon="34.9179200">
<ele>557.720032</ele>
<time>2024-03-15T16:01:30.670Z</time>
</trkpt>
<trkpt lat="30.9380500" lon="34.9181800">
<ele>558.820007</ele>
<time>2024-03-15T16:01:30.670Z</time>
</trkpt>
<trkpt lat="30.9377600" lon="34.9186600">
<ele>569.609985</ele>
<time>2024-03-15T16:01:30.670Z</time>
</trkpt>
<trkpt lat="30.9375800" lon="34.9193600">
<ele>573.969971</ele>
<time>2024-03-15T16:01:30.670Z</time>
</trkpt>
<trkpt lat="30.9373500" lon="34.9197900">
<ele>573.940002</ele>
<time>2024-03-15T16:01:30.670Z</time>
</trkpt>
<trkpt lat="30.9370100" lon="34.9201300">
<ele>572.280029</ele>
<time>2024-03-15T16:01:30.670Z</time>
</trkpt>
<trkpt lat="30.9368000" lon="34.9201900">
<ele>572.200012</ele>
<time>2024-03-15T16:01:30.670Z</time>
</trkpt>
<trkpt lat="30.9362100" lon="34.9206800">
<ele>574.089966</ele>
<time>2024-03-15T16:01:30.670Z</time>
</trkpt>
<trkpt lat="30.9359600" lon="34.9210100">
<ele>578.109985</ele>
<time>2024-03-15T16:01:30.670Z</time>
</trkpt>
<trkpt lat="30.9354300" lon="34.9212600">
<ele>581.299988</ele>
<time>2024-03-15T16:01:30.670Z</time>
</trkpt>
<trkpt lat="30.9349000" lon="34.9216100">
<ele>582.419983</ele>
<time>2024-03-15T16:01:30.670Z</time>
</trkpt>
<trkpt lat="30.9346600" lon="34.9216100">
<ele>577.260010</ele>
<time>2024-03-15T16:01:30.670Z</time>
</trkpt>
<trkpt lat="30.9344900" lon="34.9217200">
<ele>576.400024</ele>
<time>2024-03-15T16:01:30.670Z</time>
</trkpt>
<trkpt lat="30.9335700" lon="34.9218000">
<ele>572.820007</ele>
<time>2024-03-15T16:01:30.670Z</time>
</trkpt>
<trkpt lat="30.9329700" lon="34.9220000">
<ele>577.030029</ele>
<time>2024-03-15T16:01:30.670Z</time>
</trkpt>
<trkpt lat="30.9325800" lon="34.9224100">
<ele>584.750000</ele>
<time>2024-03-15T16:01:30.670Z</time>
</trkpt>
<trkpt lat="30.9322500" lon="34.9224700">
<ele>577.619995</ele>
<time>2024-03-15T16:01:30.670Z</time>
</trkpt>
<trkpt lat="30.9313200" lon="34.9228700">
<ele>581.660034</ele>
<time>2024-03-15T16:01:30.670Z</time>
</trkpt>
<trkpt lat="30.9309800" lon="34.9229100">
<ele>585.190002</ele>
<time>2024-03-15T16:01:30.670Z</time>
</trkpt>
<trkpt lat="30.9307900" lon="34.9229100">
<ele>588.109985</ele>
<time>2024-03-15T16:01:30.670Z</time>
</trkpt>
<trkpt lat="30.9307100" lon="34.9230400">
<ele>590.340027</ele>
<time>2024-03-15T16:01:30.670Z</time>
</trkpt>
<trkpt lat="30.9303800" lon="34.9232600">
<ele>591.320007</ele>
<time>2024-03-15T16:01:30.670Z</time>
</trkpt>
<trkpt lat="30.9298300" lon="34.9233100">
<ele>583.729980</ele>
<time>2024-03-15T16:01:30.670Z</time>
</trkpt>
<trkpt lat="30.9298100" lon="34.9233500">
<ele>583.469971</ele>
<time>2024-03-15T16:01:30.670Z</time>
</trkpt>
<trkpt lat="30.9292000" lon="34.9237200">
<ele>585.489990</ele>
<time>2024-03-15T16:01:30.670Z</time>
</trkpt>
<trkpt lat="30.9291600" lon="34.9237800">
<ele>585.659973</ele>
<time>2024-03-15T16:01:30.670Z</time>
</trkpt>
<trkpt lat="30.9290600" lon="34.9243400">
<ele>589.619995</ele>
<time>2024-03-15T16:01:30.670Z</time>
</trkpt>
<trkpt lat="30.9289700" lon="34.9251400">
<ele>595.900024</ele>
<time>2024-03-15T16:01:30.670Z</time>
</trkpt>
<trkpt lat="30.9286900" lon="34.9255500">
<ele>591.619995</ele>
<time>2024-03-15T16:01:30.670Z</time>
</trkpt>
<trkpt lat="30.9286300" lon="34.9256900">
<ele>590.119995</ele>
<time>2024-03-15T16:01:30.670Z</time>
</trkpt>
<trkpt lat="30.9282700" lon="34.9260000">
<ele>588.980042</ele>
<time>2024-03-15T16:01:30.670Z</time>
</trkpt>
<trkpt lat="30.9282500" lon="34.9260600">
<ele>589.299988</ele>
<time>2024-03-15T16:01:30.670Z</time>
</trkpt>
<trkpt lat="30.9281000" lon="34.9281000">
<ele>607.929993</ele>
<time>2024-03-15T16:01:30.670Z</time>
</trkpt>
<trkpt lat="30.9278700" lon="34.9290400">
<ele>613.929993</ele>
<time>2024-03-15T16:01:30.670Z</time>
</trkpt>
<trkpt lat="30.9277700" lon="34.9293600">
<ele>615.630005</ele>
<time>2024-03-15T16:01:30.670Z</time>
</trkpt>
<trkpt lat="30.9277700" lon="34.9298400">
<ele>618.640015</ele>
<time>2024-03-15T16:01:30.670Z</time>
</trkpt>
<trkpt lat="30.9277300" lon="34.9306500">
<ele>627.020020</ele>
<time>2024-03-15T16:01:30.670Z</time>
</trkpt>
<trkpt lat="30.9277700" lon="34.9298400">
<ele>618.640015</ele>
<time>2024-03-15T16:01:30.670Z</time>
</trkpt>
<trkpt lat="30.9277700" lon="34.9293600">
<ele>615.630005</ele>
<time>2024-03-15T16:01:30.670Z</time>
</trkpt>
<trkpt lat="30.9278700" lon="34.9290400">
<ele>613.929993</ele>
<time>2024-03-15T16:01:30.670Z</time>
</trkpt>
<trkpt lat="30.9280900" lon="34.9281000">
<ele>607.799988</ele>
<time>2024-03-15T16:01:30.670Z</time>
</trkpt>
<trkpt lat="30.9282600" lon="34.9259800">
<ele>588.649963</ele>
<time>2024-03-15T16:01:30.670Z</time>
</trkpt>
<trkpt lat="30.9286300" lon="34.9256800">
<ele>590.140015</ele>
<time>2024-03-15T16:01:30.670Z</time>
</trkpt>
<trkpt lat="30.9286900" lon="34.9255400">
<ele>591.470032</ele>
<time>2024-03-15T16:01:30.670Z</time>
</trkpt>
<trkpt lat="30.9289700" lon="34.9251400">
<ele>595.900024</ele>
<time>2024-03-15T16:01:30.670Z</time>
</trkpt>
<trkpt lat="30.9290600" lon="34.9243400">
<ele>589.619995</ele>
<time>2024-03-15T16:01:30.670Z</time>
</trkpt>
<trkpt lat="30.9291600" lon="34.9237800">
<ele>585.659973</ele>
<time>2024-03-15T16:01:30.670Z</time>
</trkpt>
<trkpt lat="30.9292000" lon="34.9237100">
<ele>585.440002</ele>
<time>2024-03-15T16:01:30.670Z</time>
</trkpt>
<trkpt lat="30.9295300" lon="34.9234900">
<ele>584.729980</ele>
<time>2024-03-15T16:01:30.670Z</time>
</trkpt>
<trkpt lat="30.9298300" lon="34.9233100">
<ele>583.729980</ele>
<time>2024-03-15T16:01:30.670Z</time>
</trkpt>
<trkpt lat="30.9304000" lon="34.9232600">
<ele>591.590027</ele>
<time>2024-03-15T16:01:30.670Z</time>
</trkpt>
<trkpt lat="30.9306200" lon="34.9230500">
<ele>590.190002</ele>
<time>2024-03-15T16:01:30.670Z</time>
</trkpt>
<trkpt lat="30.9306800" lon="34.9228500">
<ele>588.049988</ele>
<time>2024-03-15T16:01:30.670Z</time>
</trkpt>
<trkpt lat="30.9305800" lon="34.9228000">
<ele>588.760010</ele>
<time>2024-03-15T16:01:30.670Z</time>
</trkpt>
<trkpt lat="30.9301400" lon="34.9227800">
<ele>590.450012</ele>
<time>2024-03-15T16:01:30.670Z</time>
</trkpt>
<trkpt lat="30.9295600" lon="34.9224500">
<ele>607.989990</ele>
<time>2024-03-15T16:01:30.670Z</time>
</trkpt>
<trkpt lat="30.9293200" lon="34.9224200">
<ele>609.630005</ele>
<time>2024-03-15T16:01:30.670Z</time>
</trkpt>
<trkpt lat="30.9291100" lon="34.9223100">
<ele>611.460022</ele>
<time>2024-03-15T16:01:30.670Z</time>
</trkpt>
<trkpt lat="30.9288100" lon="34.9220700">
<ele>616.390015</ele>
<time>2024-03-15T16:01:30.670Z</time>
</trkpt>
<trkpt lat="30.9284900" lon="34.9219200">
<ele>623.320007</ele>
<time>2024-03-15T16:01:30.670Z</time>
</trkpt>
<trkpt lat="30.9283500" lon="34.9213400">
<ele>629.049988</ele>
<time>2024-03-15T16:01:30.670Z</time>
</trkpt>
<trkpt lat="30.9279700" lon="34.9211300">
<ele>622.950012</ele>
<time>2024-03-15T16:01:30.670Z</time>
</trkpt>
<trkpt lat="30.9279300" lon="34.9209700">
<ele>621.730042</ele>
<time>2024-03-15T16:01:30.670Z</time>
</trkpt>
<trkpt lat="30.9279400" lon="34.9208600">
<ele>621.580017</ele>
<time>2024-03-15T16:01:30.670Z</time>
</trkpt>
<trkpt lat="30.9279300" lon="34.9202000">
<ele>622.020020</ele>
<time>2024-03-15T16:01:30.670Z</time>
</trkpt>
<trkpt lat="30.9278900" lon="34.9196700">
<ele>620.090027</ele>
<time>2024-03-15T16:01:30.670Z</time>
</trkpt>
<trkpt lat="30.9278900" lon="34.9191600">
<ele>618.669983</ele>
<time>2024-03-15T16:01:30.670Z</time>
</trkpt>
<trkpt lat="30.9278700" lon="34.9190500">
<ele>618.549988</ele>
<time>2024-03-15T16:01:30.670Z</time>
</trkpt>
<trkpt lat="30.9276200" lon="34.9188300">
<ele>611.970032</ele>
<time>2024-03-15T16:01:30.670Z</time>
</trkpt>
<trkpt lat="30.9275800" lon="34.9185100">
<ele>610.529968</ele>
<time>2024-03-15T16:01:30.670Z</time>
</trkpt>
<trkpt lat="30.9275800" lon="34.9181400">
<ele>612.159973</ele>
<time>2024-03-15T16:01:30.670Z</time>
</trkpt>
<trkpt lat="30.9275400" lon="34.9176800">
<ele>610.229980</ele>
<time>2024-03-15T16:01:30.670Z</time>
</trkpt>
<trkpt lat="30.9275500" lon="34.9170100">
<ele>600.820007</ele>
<time>2024-03-15T16:01:30.670Z</time>
</trkpt>
<trkpt lat="30.9275000" lon="34.9163400">
<ele>596.000000</ele>
<time>2024-03-15T16:01:30.670Z</time>
</trkpt>
<trkpt lat="30.9272800" lon="34.9159000">
<ele>592.070007</ele>
<time>2024-03-15T16:01:30.670Z</time>
</trkpt>
<trkpt lat="30.9271700" lon="34.9159000">
<ele>591.859985</ele>
<time>2024-03-15T16:01:30.670Z</time>
</trkpt>
<trkpt lat="30.9271200" lon="34.9162300">
<ele>591.940002</ele>
<time>2024-03-15T16:01:30.670Z</time>
</trkpt>
<trkpt lat="30.9271100" lon="34.9168900">
<ele>588.600037</ele>
<time>2024-03-15T16:01:30.670Z</time>
</trkpt>
<trkpt lat="30.9270700" lon="34.9170400">
<ele>588.609985</ele>
<time>2024-03-15T16:01:30.670Z</time>
</trkpt>
<trkpt lat="30.9267200" lon="34.9172600">
<ele>587.220032</ele>
<time>2024-03-15T16:01:30.670Z</time>
</trkpt>
<trkpt lat="30.9262600" lon="34.9172700">
<ele>597.580017</ele>
<time>2024-03-15T16:01:30.670Z</time>
</trkpt>
<trkpt lat="30.9260000" lon="34.9172000">
<ele>605.489990</ele>
<time>2024-03-15T16:01:30.670Z</time>
</trkpt>
<trkpt lat="30.9256800" lon="34.9171700">
<ele>607.799988</ele>
<time>2024-03-15T16:01:30.670Z</time>
</trkpt>
<trkpt lat="30.9255800" lon="34.9169200">
<ele>608.320007</ele>
<time>2024-03-15T16:01:30.670Z</time>
</trkpt>
<trkpt lat="30.9255400" lon="34.9169000">
<ele>608.099976</ele>
<time>2024-03-15T16:01:30.670Z</time>
</trkpt>
<trkpt lat="30.9255100" lon="34.9169000">
<ele>607.690002</ele>
<time>2024-03-15T16:01:30.670Z</time>
</trkpt>
<trkpt lat="30.9250700" lon="34.9169800">
<ele>599.320007</ele>
<time>2024-03-15T16:01:30.670Z</time>
</trkpt>
<trkpt lat="30.9249700" lon="34.9171000">
<ele>597.330017</ele>
<time>2024-03-15T16:01:30.670Z</time>
</trkpt>
<trkpt lat="30.9248700" lon="34.9173600">
<ele>597.520020</ele>
<time>2024-03-15T16:01:30.670Z</time>
</trkpt>
<trkpt lat="30.9243400" lon="34.9177100">
<ele>599.789978</ele>
<time>2024-03-15T16:01:30.670Z</time>
</trkpt>
<trkpt lat="30.9241000" lon="34.9180000">
<ele>603.820007</ele>
<time>2024-03-15T16:01:30.670Z</time>
</trkpt>
<trkpt lat="30.9239800" lon="34.9180000">
<ele>607.109985</ele>
<time>2024-03-15T16:01:30.670Z</time>
</trkpt>
<trkpt lat="30.9237200" lon="34.9180000">
<ele>613.730042</ele>
<time>2024-03-15T16:01:30.670Z</time>
</trkpt>
<trkpt lat="30.9233700" lon="34.9177200">
<ele>614.899963</ele>
<time>2024-03-15T16:01:30.670Z</time>
</trkpt>
<trkpt lat="30.9233500" lon="34.9168100">
<ele>608.570007</ele>
<time>2024-03-15T16:01:30.670Z</time>
</trkpt>
<trkpt lat="30.9231400" lon="34.9164700">
<ele>610.179993</ele>
<time>2024-03-15T16:01:30.670Z</time>
</trkpt>
<trkpt lat="30.9228500" lon="34.9164700">
<ele>612.479980</ele>
<time>2024-03-15T16:01:30.670Z</time>
</trkpt>
<trkpt lat="30.9227000" lon="34.9165400">
<ele>613.130005</ele>
<time>2024-03-15T16:01:30.670Z</time>
</trkpt>
<trkpt lat="30.9223900" lon="34.9168800">
<ele>613.559998</ele>
<time>2024-03-15T16:01:30.670Z</time>
</trkpt>
<trkpt lat="30.9223300" lon="34.9172100">
<ele>616.040039</ele>
<time>2024-03-15T16:01:30.670Z</time>
</trkpt>
<trkpt lat="30.9222400" lon="34.9173200">
<ele>617.239990</ele>
<time>2024-03-15T16:01:30.670Z</time>
</trkpt>
<trkpt lat="30.9211500" lon="34.9177200">
<ele>613.940002</ele>
<time>2024-03-15T16:01:30.670Z</time>
</trkpt>
<trkpt lat="30.9208800" lon="34.9177300">
<ele>613.170044</ele>
<time>2024-03-15T16:01:30.670Z</time>
</trkpt>
<trkpt lat="30.9207700" lon="34.9177000">
<ele>612.609985</ele>
<time>2024-03-15T16:01:30.670Z</time>
</trkpt>
<trkpt lat="30.9203500" lon="34.9177500">
<ele>609.619995</ele>
<time>2024-03-15T16:01:30.670Z</time>
</trkpt>
<trkpt lat="30.9203300" lon="34.9177800">
<ele>609.409973</ele>
<time>2024-03-15T16:01:30.670Z</time>
</trkpt>
<trkpt lat="30.9196500" lon="34.9181500">
<ele>617.070007</ele>
<time>2024-03-15T16:01:30.670Z</time>
</trkpt>
<trkpt lat="30.9195000" lon="34.9181300">
<ele>620.650024</ele>
<time>2024-03-15T16:01:30.670Z</time>
</trkpt>
<trkpt lat="30.9194700" lon="34.9181400">
<ele>621.380005</ele>
<time>2024-03-15T16:01:30.670Z</time>
</trkpt>
<trkpt lat="30.9192200" lon="34.9181200">
<ele>624.239990</ele>
<time>2024-03-15T16:01:30.670Z</time>
</trkpt>
<trkpt lat="30.9190600" lon="34.9180200">
<ele>623.619995</ele>
<time>2024-03-15T16:01:30.670Z</time>
</trkpt>
<trkpt lat="30.9186600" lon="34.9179000">
<ele>620.489990</ele>
<time>2024-03-15T16:01:30.670Z</time>
</trkpt>
<trkpt lat="30.9179900" lon="34.9173200">
<ele>639.919983</ele>
<time>2024-03-15T16:01:30.670Z</time>
</trkpt>
<trkpt lat="30.9176500" lon="34.9172000">
<ele>638.170044</ele>
<time>2024-03-15T16:01:30.670Z</time>
</trkpt>
<trkpt lat="30.9161800" lon="34.9171900">
<ele>624.719971</ele>
<time>2024-03-15T16:01:30.670Z</time>
</trkpt>
<trkpt lat="30.9159300" lon="34.9168900">
<ele>626.179993</ele>
<time>2024-03-15T16:01:30.670Z</time>
</trkpt>
<trkpt lat="30.9158000" lon="34.9165200">
<ele>631.819946</ele>
<time>2024-03-15T16:01:30.670Z</time>
</trkpt>
<trkpt lat="30.9154100" lon="34.9160300">
<ele>636.039978</ele>
<time>2024-03-15T16:01:30.670Z</time>
</trkpt>
<trkpt lat="30.9149700" lon="34.9159400">
<ele>635.859985</ele>
<time>2024-03-15T16:01:30.670Z</time>
</trkpt>
<trkpt lat="30.9146400" lon="34.9158200">
<ele>639.569946</ele>
<time>2024-03-15T16:01:30.670Z</time>
</trkpt>
<trkpt lat="30.9144300" lon="34.9157900">
<ele>642.860046</ele>
<time>2024-03-15T16:01:30.670Z</time>
</trkpt>
<trkpt lat="30.9142900" lon="34.9156600">
<ele>644.150024</ele>
<time>2024-03-15T16:01:30.670Z</time>
</trkpt>
<trkpt lat="30.9141300" lon="34.9155600">
<ele>644.079956</ele>
<time>2024-03-15T16:01:30.670Z</time>
</trkpt>
<trkpt lat="30.9140300" lon="34.9152900">
<ele>648.820007</ele>
<time>2024-03-15T16:01:30.670Z</time>
</trkpt>
<trkpt lat="30.9135500" lon="34.9152300">
<ele>647.280029</ele>
<time>2024-03-15T16:01:30.670Z</time>
</trkpt>
<trkpt lat="30.9132600" lon="34.9152400">
<ele>641.559998</ele>
<time>2024-03-15T16:01:30.670Z</time>
</trkpt>
<trkpt lat="30.9130700" lon="34.9152900">
<ele>636.450012</ele>
<time>2024-03-15T16:01:30.670Z</time>
</trkpt>
<trkpt lat="30.9125100" lon="34.9152500">
<ele>632.400024</ele>
<time>2024-03-15T16:01:30.670Z</time>
</trkpt>
<trkpt lat="30.9118600" lon="34.9153200">
<ele>634.269958</ele>
<time>2024-03-15T16:01:30.670Z</time>
</trkpt>
<trkpt lat="30.9115900" lon="34.9156000">
<ele>632.900024</ele>
<time>2024-03-15T16:01:30.670Z</time>
</trkpt>
<trkpt lat="30.9115500" lon="34.9158000">
<ele>634.260010</ele>
<time>2024-03-15T16:01:30.670Z</time>
</trkpt>
<trkpt lat="30.9109800" lon="34.9167900">
<ele>637.769958</ele>
<time>2024-03-15T16:01:30.670Z</time>
</trkpt>
<trkpt lat="30.9107500" lon="34.9169800">
<ele>638.820007</ele>
<time>2024-03-15T16:01:30.670Z</time>
</trkpt>
<trkpt lat="30.9098600" lon="34.9173600">
<ele>655.279968</ele>
<time>2024-03-15T16:01:30.670Z</time>
</trkpt>
<trkpt lat="30.9096600" lon="34.9173500">
<ele>659.500000</ele>
<time>2024-03-15T16:01:30.670Z</time>
</trkpt>
<trkpt lat="30.9094700" lon="34.9173400">
<ele>663.750000</ele>
<time>2024-03-15T16:01:30.670Z</time>
</trkpt>
<trkpt lat="30.9093600" lon="34.9173100">
<ele>665.020020</ele>
<time>2024-03-15T16:01:30.670Z</time>
</trkpt>
<trkpt lat="30.9091200" lon="34.9169800">
<ele>667.380005</ele>
<time>2024-03-15T16:01:30.670Z</time>
</trkpt>
<trkpt lat="30.9090500" lon="34.9165500">
<ele>664.380005</ele>
<time>2024-03-15T16:01:30.670Z</time>
</trkpt>
<trkpt lat="30.9090300" lon="34.9165600">
<ele>663.799988</ele>
<time>2024-03-15T16:01:30.670Z</time>
</trkpt>
<trkpt lat="30.9088400" lon="34.9162700">
<ele>657.500061</ele>
<time>2024-03-15T16:01:30.670Z</time>
</trkpt>
<trkpt lat="30.9085800" lon="34.9156200">
<ele>654.710022</ele>
<time>2024-03-15T16:01:30.670Z</time>
</trkpt>
<trkpt lat="30.9081300" lon="34.9152200">
<ele>647.799988</ele>
<time>2024-03-15T16:01:30.670Z</time>
</trkpt>
<trkpt lat="30.9080000" lon="34.9151400">
<ele>646.609985</ele>
<time>2024-03-15T16:01:30.670Z</time>
</trkpt>
<trkpt lat="30.9076500" lon="34.9150800">
<ele>648.900024</ele>
<time>2024-03-15T16:01:30.670Z</time>
</trkpt>
<trkpt lat="30.9075400" lon="34.9151000">
<ele>650.359985</ele>
<time>2024-03-15T16:01:30.670Z</time>
</trkpt>
<trkpt lat="30.9073200" lon="34.9150900">
<ele>652.320007</ele>
<time>2024-03-15T16:01:30.670Z</time>
</trkpt>
<trkpt lat="30.9072700" lon="34.9150800">
<ele>652.789978</ele>
<time>2024-03-15T16:01:30.670Z</time>
</trkpt>
<trkpt lat="30.9071800" lon="34.9150900">
<ele>653.070007</ele>
<time>2024-03-15T16:01:30.670Z</time>
</trkpt>
<trkpt lat="30.9069700" lon="34.9151000">
<ele>653.319946</ele>
<time>2024-03-15T16:01:30.670Z</time>
</trkpt>
<trkpt lat="30.9068000" lon="34.9152000">
<ele>653.950012</ele>
<time>2024-03-15T16:01:30.670Z</time>
</trkpt>
<trkpt lat="30.9065800" lon="34.9153900">
<ele>656.640015</ele>
<time>2024-03-15T16:01:30.670Z</time>
</trkpt>
<trkpt lat="30.9065300" lon="34.9154200">
<ele>656.800049</ele>
<time>2024-03-15T16:01:30.670Z</time>
</trkpt>
<trkpt lat="30.9063800" lon="34.9155900">
<ele>658.140015</ele>
<time>2024-03-15T16:01:30.670Z</time>
</trkpt>
<trkpt lat="30.9062000" lon="34.9156700">
<ele>662.579956</ele>
<time>2024-03-15T16:01:30.670Z</time>
</trkpt>
<trkpt lat="30.9061300" lon="34.9156800">
<ele>663.570007</ele>
<time>2024-03-15T16:01:30.670Z</time>
</trkpt>
<trkpt lat="30.9061100" lon="34.9156800">
<ele>663.799988</ele>
<time>2024-03-15T16:01:30.670Z</time>
</trkpt>
<trkpt lat="30.9059700" lon="34.9156500">
<ele>664.530029</ele>
<time>2024-03-15T16:01:30.670Z</time>
</trkpt>
<trkpt lat="30.9058100" lon="34.9155700">
<ele>665.619995</ele>
<time>2024-03-15T16:01:30.670Z</time>
</trkpt>
<trkpt lat="30.9056800" lon="34.9155500">
<ele>663.759949</ele>
<time>2024-03-15T16:01:30.670Z</time>
</trkpt>
<trkpt lat="30.9055500" lon="34.9155700">
<ele>661.879944</ele>
<time>2024-03-15T16:01:30.670Z</time>
</trkpt>
<trkpt lat="30.9054400" lon="34.9156600">
<ele>659.100037</ele>
<time>2024-03-15T16:01:30.670Z</time>
</trkpt>
<trkpt lat="30.9053600" lon="34.9157700">
<ele>658.069946</ele>
<time>2024-03-15T16:01:30.670Z</time>
</trkpt>
<trkpt lat="30.9052400" lon="34.9158700">
<ele>656.830017</ele>
<time>2024-03-15T16:01:30.670Z</time>
</trkpt>
<trkpt lat="30.9051400" lon="34.9160000">
<ele>656.520020</ele>
<time>2024-03-15T16:01:30.670Z</time>
</trkpt>
<trkpt lat="30.9049900" lon="34.9162600">
<ele>658.190002</ele>
<time>2024-03-15T16:01:30.670Z</time>
</trkpt>
<trkpt lat="30.9047100" lon="34.9165100">
<ele>661.310059</ele>
<time>2024-03-15T16:01:30.670Z</time>
</trkpt>
<trkpt lat="30.9045800" lon="34.9165900">
<ele>664.160034</ele>
<time>2024-03-15T16:01:30.670Z</time>
</trkpt>
<trkpt lat="30.9044100" lon="34.9166400">
<ele>666.209961</ele>
<time>2024-03-15T16:01:30.670Z</time>
</trkpt>
<trkpt lat="30.9042900" lon="34.9166400">
<ele>665.120056</ele>
<time>2024-03-15T16:01:30.670Z</time>
</trkpt>
<trkpt lat="30.9041500" lon="34.9166000">
<ele>663.870056</ele>
<time>2024-03-15T16:01:30.670Z</time>
</trkpt>
<trkpt lat="30.9039700" lon="34.9166000">
<ele>662.440002</ele>
<time>2024-03-15T16:01:30.670Z</time>
</trkpt>
<trkpt lat="30.9038500" lon="34.9165700">
<ele>661.440063</ele>
<time>2024-03-15T16:01:30.670Z</time>
</trkpt>
<trkpt lat="30.9036700" lon="34.9165300">
<ele>661.340027</ele>
<time>2024-03-15T16:01:30.670Z</time>
</trkpt>
<trkpt lat="30.9034000" lon="34.9165400">
<ele>658.979980</ele>
<time>2024-03-15T16:01:30.670Z</time>
</trkpt>
<trkpt lat="30.9032600" lon="34.9165100">
<ele>657.079956</ele>
<time>2024-03-15T16:01:30.670Z</time>
</trkpt>
<trkpt lat="30.9032200" lon="34.9164800">
<ele>656.430054</ele>
<time>2024-03-15T16:01:30.670Z</time>
</trkpt>
<trkpt lat="30.9030400" lon="34.9164800">
<ele>654.970032</ele>
<time>2024-03-15T16:01:30.670Z</time>
</trkpt>
<trkpt lat="30.9027100" lon="34.9163800">
<ele>661.630005</ele>
<time>2024-03-15T16:01:30.670Z</time>
</trkpt>
<trkpt lat="30.9026400" lon="34.9163800">
<ele>663.119995</ele>
<time>2024-03-15T16:01:30.670Z</time>
</trkpt>
<trkpt lat="30.9024400" lon="34.9163100">
<ele>667.869995</ele>
<time>2024-03-15T16:01:30.670Z</time>
</trkpt>
<trkpt lat="30.9020800" lon="34.9161300">
<ele>674.950012</ele>
<time>2024-03-15T16:01:30.670Z</time>
</trkpt>
<trkpt lat="30.9020100" lon="34.9160800">
<ele>676.250000</ele>
<time>2024-03-15T16:01:30.670Z</time>
</trkpt>
<trkpt lat="30.9020100" lon="34.9160900">
<ele>676.190002</ele>
<time>2024-03-15T16:01:30.670Z</time>
</trkpt>
<trkpt lat="30.9020100" lon="34.9160800">
<ele>676.250000</ele>
<time>2024-03-15T16:01:30.670Z</time>
</trkpt>
<trkpt lat="30.9019400" lon="34.9159900">
<ele>677.509949</ele>
<time>2024-03-15T16:01:30.670Z</time>
</trkpt>
<trkpt lat="30.9019100" lon="34.9158900">
<ele>678.070007</ele>
<time>2024-03-15T16:01:30.670Z</time>
</trkpt>
<trkpt lat="30.9017800" lon="34.9157200">
<ele>677.529968</ele>
<time>2024-03-15T16:01:30.670Z</time>
</trkpt>
<trkpt lat="30.9017500" lon="34.9156000">
<ele>676.429993</ele>
<time>2024-03-15T16:01:30.670Z</time>
</trkpt>
<trkpt lat="30.9017000" lon="34.9154700">
<ele>676.690002</ele>
<time>2024-03-15T16:01:30.670Z</time>
</trkpt>
<trkpt lat="30.9015400" lon="34.9153000">
<ele>678.900024</ele>
<time>2024-03-15T16:01:30.670Z</time>
</trkpt>
<trkpt lat="30.9011200" lon="34.9150000">
<ele>684.000000</ele>
<time>2024-03-15T16:01:30.670Z</time>
</trkpt>
<trkpt lat="30.9010600" lon="34.9149900">
<ele>683.400024</ele>
<time>2024-03-15T16:01:30.670Z</time>
</trkpt>
<trkpt lat="30.9007000" lon="34.9148300">
<ele>684.070007</ele>
<time>2024-03-15T16:01:30.670Z</time>
</trkpt>
<trkpt lat="30.9005600" lon="34.9148100">
<ele>684.059998</ele>
<time>2024-03-15T16:01:30.670Z</time>
</trkpt>
<trkpt lat="30.9004700" lon="34.9147800">
<ele>682.640015</ele>
<time>2024-03-15T16:01:30.670Z</time>
</trkpt>
<trkpt lat="30.9003300" lon="34.9147500">
<ele>680.400024</ele>
<time>2024-03-15T16:01:30.670Z</time>
</trkpt>
<trkpt lat="30.9001700" lon="34.9146700">
<ele>679.959961</ele>
<time>2024-03-15T16:01:30.670Z</time>
</trkpt>
<trkpt lat="30.9001100" lon="34.9146800">
<ele>679.099976</ele>
<time>2024-03-15T16:01:30.670Z</time>
</trkpt>
<trkpt lat="30.8999500" lon="34.9146500">
<ele>678.150024</ele>
<time>2024-03-15T16:01:30.670Z</time>
</trkpt>
<trkpt lat="30.8998400" lon="34.9146000">
<ele>678.229980</ele>
<time>2024-03-15T16:01:30.670Z</time>
</trkpt>
<trkpt lat="30.8997300" lon="34.9145800">
<ele>677.630005</ele>
<time>2024-03-15T16:01:30.670Z</time>
</trkpt>
<trkpt lat="30.8996100" lon="34.9145400">
<ele>676.510010</ele>
<time>2024-03-15T16:01:30.670Z</time>
</trkpt>
<trkpt lat="30.8994400" lon="34.9144300">
<ele>677.069946</ele>
<time>2024-03-15T16:01:30.670Z</time>
</trkpt>
<trkpt lat="30.8992400" lon="34.9143400">
<ele>677.109985</ele>
<time>2024-03-15T16:01:30.670Z</time>
</trkpt>
<trkpt lat="30.8989600" lon="34.9142700">
<ele>675.820007</ele>
<time>2024-03-15T16:01:30.670Z</time>
</trkpt>
<trkpt lat="30.8987300" lon="34.9142600">
<ele>675.130005</ele>
<time>2024-03-15T16:01:30.670Z</time>
</trkpt>
<trkpt lat="30.8987100" lon="34.9142600">
<ele>675.109985</ele>
<time>2024-03-15T16:01:30.670Z</time>
</trkpt>
<trkpt lat="30.8985100" lon="34.9142400">
<ele>674.500000</ele>
<time>2024-03-15T16:01:30.670Z</time>
</trkpt>
<trkpt lat="30.8984300" lon="34.9142000">
<ele>674.000000</ele>
<time>2024-03-15T16:01:30.670Z</time>
</trkpt>
<trkpt lat="30.8981200" lon="34.9141100">
<ele>674.989990</ele>
<time>2024-03-15T16:01:30.670Z</time>
</trkpt>
<trkpt lat="30.8977600" lon="34.9139300">
<ele>685.289978</ele>
<time>2024-03-15T16:01:30.670Z</time>
</trkpt>
<trkpt lat="30.8975300" lon="34.9137600">
<ele>686.559998</ele>
<time>2024-03-15T16:01:30.670Z</time>
</trkpt>
<trkpt lat="30.8974100" lon="34.9137100">
<ele>686.550049</ele>
<time>2024-03-15T16:01:30.670Z</time>
</trkpt>
<trkpt lat="30.8973100" lon="34.9137000">
<ele>686.429993</ele>
<time>2024-03-15T16:01:30.670Z</time>
</trkpt>
<trkpt lat="30.8971900" lon="34.9136400">
<ele>686.219971</ele>
<time>2024-03-15T16:01:30.670Z</time>
</trkpt>
<trkpt lat="30.8971300" lon="34.9135600">
<ele>685.599976</ele>
<time>2024-03-15T16:01:30.670Z</time>
</trkpt>
<trkpt lat="30.8970800" lon="34.9134800">
<ele>684.619995</ele>
<time>2024-03-15T16:01:30.670Z</time>
</trkpt>
<trkpt lat="30.8969200" lon="34.9132800">
<ele>682.250000</ele>
<time>2024-03-15T16:01:30.670Z</time>
</trkpt>
<trkpt lat="30.8968600" lon="34.9132000">
<ele>680.950012</ele>
<time>2024-03-15T16:01:30.670Z</time>
</trkpt>
<trkpt lat="30.8968200" lon="34.9130800">
<ele>679.370056</ele>
<time>2024-03-15T16:01:30.670Z</time>
</trkpt>
<trkpt lat="30.8967400" lon="34.9129700">
<ele>677.910034</ele>
<time>2024-03-15T16:01:30.670Z</time>
</trkpt>
<trkpt lat="30.8965700" lon="34.9128900">
<ele>677.789978</ele>
<time>2024-03-15T16:01:30.670Z</time>
</trkpt>
<trkpt lat="30.8965200" lon="34.9128800">
<ele>678.179993</ele>
<time>2024-03-15T16:01:30.670Z</time>
</trkpt>
<trkpt lat="30.8964500" lon="34.9128200">
<ele>678.099976</ele>
<time>2024-03-15T16:01:30.670Z</time>
</trkpt>
<trkpt lat="30.8964200" lon="34.9127700">
<ele>677.669983</ele>
<time>2024-03-15T16:01:30.670Z</time>
</trkpt>
<trkpt lat="30.8964100" lon="34.9126600">
<ele>676.179993</ele>
<time>2024-03-15T16:01:30.670Z</time>
</trkpt>
<trkpt lat="30.8963700" lon="34.9125300">
<ele>674.630005</ele>
<time>2024-03-15T16:01:30.670Z</time>
</trkpt>
<trkpt lat="30.8962700" lon="34.9123500">
<ele>674.979980</ele>
<time>2024-03-15T16:01:30.670Z</time>
</trkpt>
<trkpt lat="30.8962000" lon="34.9122900">
<ele>675.799988</ele>
<time>2024-03-15T16:01:30.670Z</time>
</trkpt>
<trkpt lat="30.8961000" lon="34.9121200">
<ele>677.739990</ele>
<time>2024-03-15T16:01:30.670Z</time>
</trkpt>
<trkpt lat="30.8958400" lon="34.9118300">
<ele>679.840027</ele>
<time>2024-03-15T16:01:30.670Z</time>
</trkpt>
<trkpt lat="30.8957600" lon="34.9117800">
<ele>680.180054</ele>
<time>2024-03-15T16:01:30.670Z</time>
</trkpt>
<trkpt lat="30.8955800" lon="34.9115400">
<ele>682.779968</ele>
<time>2024-03-15T16:01:30.670Z</time>
</trkpt>
<trkpt lat="30.8954700" lon="34.9114400">
<ele>683.510010</ele>
<time>2024-03-15T16:01:30.670Z</time>
</trkpt>
<trkpt lat="30.8954000" lon="34.9113200">
<ele>683.820007</ele>
<time>2024-03-15T16:01:30.670Z</time>
</trkpt>
<trkpt lat="30.8953500" lon="34.9111600">
<ele>684.430054</ele>
<time>2024-03-15T16:01:30.670Z</time>
</trkpt>
<trkpt lat="30.8952200" lon="34.9109900">
<ele>683.630005</ele>
<time>2024-03-15T16:01:30.670Z</time>
</trkpt>
<trkpt lat="30.8951500" lon="34.9109700">
<ele>682.660034</ele>
<time>2024-03-15T16:01:30.670Z</time>
</trkpt>
<trkpt lat="30.8950100" lon="34.9109800">
<ele>680.669983</ele>
<time>2024-03-15T16:01:30.670Z</time>
</trkpt>
<trkpt lat="30.8948700" lon="34.9109300">
<ele>678.960022</ele>
<time>2024-03-15T16:01:30.670Z</time>
</trkpt>
<trkpt lat="30.8945100" lon="34.9109600">
<ele>670.179993</ele>
<time>2024-03-15T16:01:30.670Z</time>
</trkpt>
<trkpt lat="30.8944300" lon="34.9109400">
<ele>667.219971</ele>
<time>2024-03-15T16:01:30.670Z</time>
</trkpt>
<trkpt lat="30.8941600" lon="34.9109300">
<ele>661.250000</ele>
<time>2024-03-15T16:01:30.670Z</time>
</trkpt>
<trkpt lat="30.8939900" lon="34.9108800">
<ele>658.940002</ele>
<time>2024-03-15T16:01:30.670Z</time>
</trkpt>
<trkpt lat="30.8939900" lon="34.9108700">
<ele>658.970032</ele>
<time>2024-03-15T16:01:30.670Z</time>
</trkpt>
<trkpt lat="30.8939900" lon="34.9108800">
<ele>658.940002</ele>
<time>2024-03-15T16:01:30.670Z</time>
</trkpt>
<trkpt lat="30.8938800" lon="34.9108900">
<ele>657.690002</ele>
<time>2024-03-15T16:01:30.670Z</time>
</trkpt>
<trkpt lat="30.8937500" lon="34.9108300">
<ele>659.540039</ele>
<time>2024-03-15T16:01:30.670Z</time>
</trkpt>
<trkpt lat="30.8936600" lon="34.9108300">
<ele>660.499939</ele>
<time>2024-03-15T16:01:30.670Z</time>
</trkpt>
<trkpt lat="30.8935500" lon="34.9108500">
<ele>661.510010</ele>
<time>2024-03-15T16:01:30.670Z</time>
</trkpt>
<trkpt lat="30.8934400" lon="34.9109400">
<ele>661.609985</ele>
<time>2024-03-15T16:01:30.670Z</time>
</trkpt>
<trkpt lat="30.8934400" lon="34.9111100">
<ele>659.630005</ele>
<time>2024-03-15T16:01:30.670Z</time>
</trkpt>
<trkpt lat="30.8934500" lon="34.9113100">
<ele>657.729980</ele>
<time>2024-03-15T16:01:30.670Z</time>
</trkpt>
<trkpt lat="30.8934700" lon="34.9114500">
<ele>656.890015</ele>
<time>2024-03-15T16:01:30.670Z</time>
</trkpt>
<trkpt lat="30.8935400" lon="34.9116200">
<ele>656.789978</ele>
<time>2024-03-15T16:01:30.670Z</time>
</trkpt>
<trkpt lat="30.8936700" lon="34.9118600">
<ele>656.619995</ele>
<time>2024-03-15T16:01:30.670Z</time>
</trkpt>
<trkpt lat="30.8937000" lon="34.9119900">
<ele>657.140015</ele>
<time>2024-03-15T16:01:30.670Z</time>
</trkpt>
<trkpt lat="30.8937000" lon="34.9121800">
<ele>658.039978</ele>
<time>2024-03-15T16:01:30.670Z</time>
</trkpt>
<trkpt lat="30.8936800" lon="34.9123100">
<ele>657.339966</ele>
<time>2024-03-15T16:01:30.670Z</time>
</trkpt>
<trkpt lat="30.8936300" lon="34.9124500">
<ele>655.600037</ele>
<time>2024-03-15T16:01:30.670Z</time>
</trkpt>
<trkpt lat="30.8935300" lon="34.9126500">
<ele>652.479980</ele>
<time>2024-03-15T16:01:30.670Z</time>
</trkpt>
<trkpt lat="30.8933700" lon="34.9130200">
<ele>642.539978</ele>
<time>2024-03-15T16:01:30.670Z</time>
</trkpt>
<trkpt lat="30.8932800" lon="34.9132400">
<ele>638.920044</ele>
<time>2024-03-15T16:01:30.670Z</time>
</trkpt>
<trkpt lat="30.8932400" lon="34.9135600">
<ele>636.310059</ele>
<time>2024-03-15T16:01:30.670Z</time>
</trkpt>
<trkpt lat="30.8932000" lon="34.9138200">
<ele>634.949951</ele>
<time>2024-03-15T16:01:30.670Z</time>
</trkpt>
<trkpt lat="30.8931900" lon="34.9140400">
<ele>633.609985</ele>
<time>2024-03-15T16:01:30.670Z</time>
</trkpt>
<trkpt lat="30.8932000" lon="34.9142000">
<ele>632.959961</ele>
<time>2024-03-15T16:01:30.670Z</time>
</trkpt>
<trkpt lat="30.8932600" lon="34.9143700">
<ele>633.559998</ele>
<time>2024-03-15T16:01:30.670Z</time>
</trkpt>
<trkpt lat="30.8933000" lon="34.9145700">
<ele>632.240051</ele>
<time>2024-03-15T16:01:30.670Z</time>
</trkpt>
<trkpt lat="30.8933000" lon="34.9147400">
<ele>629.460022</ele>
<time>2024-03-15T16:01:30.670Z</time>
</trkpt>
<trkpt lat="30.8932700" lon="34.9149700">
<ele>625.489990</ele>
<time>2024-03-15T16:01:30.670Z</time>
</trkpt>
<trkpt lat="30.8932000" lon="34.9151100">
<ele>623.039978</ele>
<time>2024-03-15T16:01:30.670Z</time>
</trkpt>
<trkpt lat="30.8931300" lon="34.9153700">
<ele>618.450012</ele>
<time>2024-03-15T16:01:30.670Z</time>
</trkpt>
<trkpt lat="30.8930200" lon="34.9155200">
<ele>616.929993</ele>
<time>2024-03-15T16:01:30.670Z</time>
</trkpt>
<trkpt lat="30.8928900" lon="34.9157900">
<ele>615.369995</ele>
<time>2024-03-15T16:01:30.670Z</time>
</trkpt>
<trkpt lat="30.8928600" lon="34.9159800">
<ele>616.179993</ele>
<time>2024-03-15T16:01:30.670Z</time>
</trkpt>
<trkpt lat="30.8928900" lon="34.9160500">
<ele>617.150024</ele>
<time>2024-03-15T16:01:30.670Z</time>
</trkpt>
<trkpt lat="30.8932000" lon="34.9161300">
<ele>617.540039</ele>
<time>2024-03-15T16:01:30.670Z</time>
</trkpt>
<trkpt lat="30.8932600" lon="34.9161900">
<ele>617.020020</ele>
<time>2024-03-15T16:01:30.670Z</time>
</trkpt>
<trkpt lat="30.8932000" lon="34.9162800">
<ele>618.320007</ele>
<time>2024-03-15T16:01:30.670Z</time>
</trkpt>
<trkpt lat="30.8930500" lon="34.9163700">
<ele>621.789978</ele>
<time>2024-03-15T16:01:30.670Z</time>
</trkpt>
<trkpt lat="30.8929500" lon="34.9165000">
<ele>622.059998</ele>
<time>2024-03-15T16:01:30.670Z</time>
</trkpt>
<trkpt lat="30.8927800" lon="34.9171400">
<ele>618.549988</ele>
<time>2024-03-15T16:01:30.670Z</time>
</trkpt>
<trkpt lat="30.8927100" lon="34.9174400">
<ele>614.359985</ele>
<time>2024-03-15T16:01:30.670Z</time>
</trkpt>
<trkpt lat="30.8927000" lon="34.9174300">
<ele>614.700012</ele>
<time>2024-03-15T16:01:30.670Z</time>
</trkpt>
<trkpt lat="30.8926400" lon="34.9177800">
<ele>611.469971</ele>
<time>2024-03-15T16:01:30.670Z</time>
</trkpt>
<trkpt lat="30.8924200" lon="34.9181200">
<ele>614.080017</ele>
<time>2024-03-15T16:01:30.670Z</time>
</trkpt>
<trkpt lat="30.8923700" lon="34.9186000">
<ele>619.250000</ele>
<time>2024-03-15T16:01:30.670Z</time>
</trkpt>
<trkpt lat="30.8923700" lon="34.9189400">
<ele>619.380005</ele>
<time>2024-03-15T16:01:30.670Z</time>
</trkpt>
<trkpt lat="30.8924300" lon="34.9190500">
<ele>616.840027</ele>
<time>2024-03-15T16:01:30.670Z</time>
</trkpt>
<trkpt lat="30.8924800" lon="34.9192300">
<ele>612.169983</ele>
<time>2024-03-15T16:01:30.670Z</time>
</trkpt>
<trkpt lat="30.8925000" lon="34.9198700">
<ele>603.000000</ele>
<time>2024-03-15T16:01:30.670Z</time>
</trkpt>
<trkpt lat="30.8925100" lon="34.9205100">
<ele>603.679993</ele>
<time>2024-03-15T16:01:30.670Z</time>
</trkpt>
<trkpt lat="30.8925300" lon="34.9211500">
<ele>605.089966</ele>
<time>2024-03-15T16:01:30.670Z</time>
</trkpt>
<trkpt lat="30.8925800" lon="34.9213800">
<ele>602.980042</ele>
<time>2024-03-15T16:01:30.670Z</time>
</trkpt>
<trkpt lat="30.8929000" lon="34.9218600">
<ele>587.940002</ele>
<time>2024-03-15T16:01:30.670Z</time>
</trkpt>
<trkpt lat="30.8929200" lon="34.9221800">
<ele>587.070007</ele>
<time>2024-03-15T16:01:30.670Z</time>
</trkpt>
<trkpt lat="30.8933100" lon="34.9221000">
<ele>579.969971</ele>
<time>2024-03-15T16:01:30.670Z</time>
</trkpt>
<trkpt lat="30.8935300" lon="34.9221800">
<ele>570.450012</ele>
<time>2024-03-15T16:01:30.670Z</time>
</trkpt>
<trkpt lat="30.8935600" lon="34.9223200">
<ele>567.260010</ele>
<time>2024-03-15T16:01:30.670Z</time>
</trkpt>
<trkpt lat="30.8936000" lon="34.9223200">
<ele>565.679993</ele>
<time>2024-03-15T16:01:30.670Z</time>
</trkpt>
<trkpt lat="30.8937200" lon="34.9223300">
<ele>562.080017</ele>
<time>2024-03-15T16:01:30.670Z</time>
</trkpt>
<trkpt lat="30.8939700" lon="34.9221300">
<ele>558.250000</ele>
<time>2024-03-15T16:01:30.670Z</time>
</trkpt>
<trkpt lat="30.8940300" lon="34.9221300">
<ele>556.950012</ele>
<time>2024-03-15T16:01:30.670Z</time>
</trkpt>
<trkpt lat="30.8942200" lon="34.9226300">
<ele>547.359985</ele>
<time>2024-03-15T16:01:30.670Z</time>
</trkpt>
<trkpt lat="30.8944100" lon="34.9231300">
<ele>545.640015</ele>
<time>2024-03-15T16:01:30.670Z</time>
</trkpt>
<trkpt lat="30.8949600" lon="34.9232300">
<ele>544.179993</ele>
<time>2024-03-15T16:01:30.670Z</time>
</trkpt>
<trkpt lat="30.8951600" lon="34.9233600">
<ele>542.329956</ele>
<time>2024-03-15T16:01:30.670Z</time>
</trkpt>
<trkpt lat="30.8953500" lon="34.9236400">
<ele>539.270020</ele>
<time>2024-03-15T16:01:30.670Z</time>
</trkpt>
<trkpt lat="30.8955200" lon="34.9236400">
<ele>533.339966</ele>
<time>2024-03-15T16:01:30.670Z</time>
</trkpt>
<trkpt lat="30.8959500" lon="34.9233600">
<ele>525.400024</ele>
<time>2024-03-15T16:01:30.670Z</time>
</trkpt>
<trkpt lat="30.8961900" lon="34.9233600">
<ele>523.059998</ele>
<time>2024-03-15T16:01:30.670Z</time>
</trkpt>
<trkpt lat="30.8964800" lon="34.9235000">
<ele>520.679993</ele>
<time>2024-03-15T16:01:30.670Z</time>
</trkpt>
<trkpt lat="30.8965400" lon="34.9235700">
<ele>519.440002</ele>
<time>2024-03-15T16:01:30.670Z</time>
</trkpt>
<trkpt lat="30.8966500" lon="34.9239100">
<ele>519.030029</ele>
<time>2024-03-15T16:01:30.670Z</time>
</trkpt>
<trkpt lat="30.8967600" lon="34.9240600">
<ele>521.320007</ele>
<time>2024-03-15T16:01:30.670Z</time>
</trkpt>
<trkpt lat="30.8969800" lon="34.9241700">
<ele>524.510010</ele>
<time>2024-03-15T16:01:30.670Z</time>
</trkpt>
<trkpt lat="30.8972300" lon="34.9243600">
<ele>524.399963</ele>
<time>2024-03-15T16:01:30.670Z</time>
</trkpt>
<trkpt lat="30.8975300" lon="34.9248400">
<ele>520.579956</ele>
<time>2024-03-15T16:01:30.670Z</time>
</trkpt>
<trkpt lat="30.8979100" lon="34.9251400">
<ele>520.739990</ele>
<time>2024-03-15T16:01:30.670Z</time>
</trkpt>
<trkpt lat="30.8982800" lon="34.9254300">
<ele>520.320007</ele>
<time>2024-03-15T16:01:30.670Z</time>
</trkpt>
<trkpt lat="30.8986600" lon="34.9257300">
<ele>508.750000</ele>
<time>2024-03-15T16:01:30.670Z</time>
</trkpt>
<trkpt lat="30.8986900" lon="34.9257900">
<ele>507.390015</ele>
<time>2024-03-15T16:01:30.670Z</time>
</trkpt>
<trkpt lat="30.8987200" lon="34.9261100">
<ele>505.649994</ele>
<time>2024-03-15T16:01:30.670Z</time>
</trkpt>
<trkpt lat="30.8988500" lon="34.9263500">
<ele>501.000000</ele>
<time>2024-03-15T16:01:30.670Z</time>
</trkpt>
<trkpt lat="30.8995100" lon="34.9267800">
<ele>494.540009</ele>
<time>2024-03-15T16:01:30.670Z</time>
</trkpt>
<trkpt lat="30.8997500" lon="34.9270700">
<ele>498.369995</ele>
<time>2024-03-15T16:01:30.670Z</time>
</trkpt>
<trkpt lat="30.8998600" lon="34.9271200">
<ele>500.299988</ele>
<time>2024-03-15T16:01:30.670Z</time>
</trkpt>
<trkpt lat="30.8999200" lon="34.9272500">
<ele>501.180023</ele>
<time>2024-03-15T16:01:30.670Z</time>
</trkpt>
<trkpt lat="30.9004200" lon="34.9277500">
<ele>498.440002</ele>
<time>2024-03-15T16:01:30.670Z</time>
</trkpt>
<trkpt lat="30.9009200" lon="34.9282500">
<ele>492.750031</ele>
<time>2024-03-15T16:01:30.670Z</time>
</trkpt>
<trkpt lat="30.9011700" lon="34.9284000">
<ele>492.639984</ele>
<time>2024-03-15T16:01:30.670Z</time>
</trkpt>
<trkpt lat="30.9014400" lon="34.9287500">
<ele>493.130005</ele>
<time>2024-03-15T16:01:30.670Z</time>
</trkpt>
<trkpt lat="30.9017900" lon="34.9290200">
<ele>492.450012</ele>
<time>2024-03-15T16:01:30.670Z</time>
</trkpt>
<trkpt lat="30.9022700" lon="34.9293400">
<ele>488.349976</ele>
<time>2024-03-15T16:01:30.670Z</time>
</trkpt>
<trkpt lat="30.9026400" lon="34.9296500">
<ele>476.420013</ele>
<time>2024-03-15T16:01:30.670Z</time>
</trkpt>
<trkpt lat="30.9028900" lon="34.9298600">
<ele>472.419983</ele>
<time>2024-03-15T16:01:30.670Z</time>
</trkpt>
<trkpt lat="30.9030100" lon="34.9299900">
<ele>470.980011</ele>
<time>2024-03-15T16:01:30.670Z</time>
</trkpt>
<trkpt lat="30.9032400" lon="34.9300400">
<ele>475.119995</ele>
<time>2024-03-15T16:01:30.670Z</time>
</trkpt>
<trkpt lat="30.9035100" lon="34.9301800">
<ele>480.259979</ele>
<time>2024-03-15T16:01:30.670Z</time>
</trkpt>
<trkpt lat="30.9037700" lon="34.9302800">
<ele>484.850006</ele>
<time>2024-03-15T16:01:30.670Z</time>
</trkpt>
<trkpt lat="30.9040800" lon="34.9307200">
<ele>481.250000</ele>
<time>2024-03-15T16:01:30.670Z</time>
</trkpt>
<trkpt lat="30.9044600" lon="34.9315600">
<ele>467.720001</ele>
<time>2024-03-15T16:01:30.670Z</time>
</trkpt>
<trkpt lat="30.9048400" lon="34.9322000">
<ele>466.980011</ele>
<time>2024-03-15T16:01:30.670Z</time>
</trkpt>
<trkpt lat="30.9052100" lon="34.9328500">
<ele>467.169983</ele>
<time>2024-03-15T16:01:30.670Z</time>
</trkpt>
<trkpt lat="30.9054700" lon="34.9334100">
<ele>463.609985</ele>
<time>2024-03-15T16:01:30.670Z</time>
</trkpt>
<trkpt lat="30.9057200" lon="34.9339700">
<ele>468.309998</ele>
<time>2024-03-15T16:01:30.670Z</time>
</trkpt>
<trkpt lat="30.9061700" lon="34.9347500">
<ele>463.380005</ele>
<time>2024-03-15T16:01:30.670Z</time>
</trkpt>
<trkpt lat="30.9064600" lon="34.9352000">
<ele>457.510010</ele>
<time>2024-03-15T16:01:30.670Z</time>
</trkpt>
<trkpt lat="30.9067400" lon="34.9356400">
<ele>458.149994</ele>
<time>2024-03-15T16:01:30.670Z</time>
</trkpt>
<trkpt lat="30.9067600" lon="34.9359300">
<ele>460.919983</ele>
<time>2024-03-15T16:01:30.670Z</time>
</trkpt>
<trkpt lat="30.9070100" lon="34.9364500">
<ele>461.070007</ele>
<time>2024-03-15T16:01:30.670Z</time>
</trkpt>
<trkpt lat="30.9072700" lon="34.9369800">
<ele>454.940002</ele>
<time>2024-03-15T16:01:30.670Z</time>
</trkpt>
<trkpt lat="30.9075200" lon="34.9375000">
<ele>462.000000</ele>
<time>2024-03-15T16:01:30.670Z</time>
</trkpt>
<trkpt lat="30.9077700" lon="34.9380200">
<ele>455.639984</ele>
<time>2024-03-15T16:01:30.670Z</time>
</trkpt>
<trkpt lat="30.9080500" lon="34.9385400">
<ele>448.750000</ele>
<time>2024-03-15T16:01:30.670Z</time>
</trkpt>
<trkpt lat="30.9083400" lon="34.9389800">
<ele>450.690002</ele>
<time>2024-03-15T16:01:30.670Z</time>
</trkpt>
<trkpt lat="30.9086200" lon="34.9394100">
<ele>451.000000</ele>
<time>2024-03-15T16:01:30.670Z</time>
</trkpt>
<trkpt lat="30.9089100" lon="34.9398500">
<ele>453.079987</ele>
<time>2024-03-15T16:01:30.670Z</time>
</trkpt>
<trkpt lat="30.9092900" lon="34.9407200">
<ele>444.970001</ele>
<time>2024-03-15T16:01:30.670Z</time>
</trkpt>
<trkpt lat="30.9096000" lon="34.9412300">
<ele>435.989990</ele>
<time>2024-03-15T16:01:30.670Z</time>
</trkpt>
<trkpt lat="30.9097200" lon="34.9416000">
<ele>438.850006</ele>
<time>2024-03-15T16:01:30.670Z</time>
</trkpt>
<trkpt lat="30.9100100" lon="34.9419500">
<ele>435.149994</ele>
<time>2024-03-15T16:01:30.670Z</time>
</trkpt>
<trkpt lat="30.9102400" lon="34.9424700">
<ele>442.239990</ele>
<time>2024-03-15T16:01:30.670Z</time>
</trkpt>
<trkpt lat="30.9105200" lon="34.9429400">
<ele>440.750000</ele>
<time>2024-03-15T16:01:30.670Z</time>
</trkpt>
<trkpt lat="30.9107900" lon="34.9434100">
<ele>439.889984</ele>
<time>2024-03-15T16:01:30.670Z</time>
</trkpt>
<trkpt lat="30.9110000" lon="34.9439300">
<ele>439.820007</ele>
<time>2024-03-15T16:01:30.670Z</time>
</trkpt>
<trkpt lat="30.9112000" lon="34.9444400">
<ele>440.640015</ele>
<time>2024-03-15T16:01:30.670Z</time>
</trkpt>
<trkpt lat="30.9113500" lon="34.9450200">
<ele>440.529999</ele>
<time>2024-03-15T16:01:30.670Z</time>
</trkpt>
<trkpt lat="30.9115100" lon="34.9456100">
<ele>438.680023</ele>
<time>2024-03-15T16:01:30.670Z</time>
</trkpt>
<trkpt lat="30.9116600" lon="34.9461900">
<ele>438.649994</ele>
<time>2024-03-15T16:01:30.670Z</time>
</trkpt>
<trkpt lat="30.9118100" lon="34.9467700">
<ele>437.180023</ele>
<time>2024-03-15T16:01:30.670Z</time>
</trkpt>
<trkpt lat="30.9120100" lon="34.9473700">
<ele>434.409973</ele>
<time>2024-03-15T16:01:30.670Z</time>
</trkpt>
<trkpt lat="30.9122000" lon="34.9479700">
<ele>428.029999</ele>
<time>2024-03-15T16:01:30.670Z</time>
</trkpt>
<trkpt lat="30.9124100" lon="34.9489500">
<ele>417.700012</ele>
<time>2024-03-15T16:01:30.670Z</time>
</trkpt>
<trkpt lat="30.9126300" lon="34.9496900">
<ele>421.949982</ele>
<time>2024-03-15T16:01:30.670Z</time>
</trkpt>
<trkpt lat="30.9128500" lon="34.9504200">
<ele>427.049988</ele>
<time>2024-03-15T16:01:30.670Z</time>
</trkpt>
<trkpt lat="30.9129900" lon="34.9510300">
<ele>432.290009</ele>
<time>2024-03-15T16:01:30.670Z</time>
</trkpt>
<trkpt lat="30.9131300" lon="34.9516500">
<ele>433.580017</ele>
<time>2024-03-15T16:01:30.670Z</time>
</trkpt>
<trkpt lat="30.9132800" lon="34.9522600">
<ele>435.380005</ele>
<time>2024-03-15T16:01:30.670Z</time>
</trkpt>
<trkpt lat="30.9134200" lon="34.9528700">
<ele>436.830017</ele>
<time>2024-03-15T16:01:30.670Z</time>
</trkpt>
<trkpt lat="30.9136400" lon="34.9533300">
<ele>434.149994</ele>
<time>2024-03-15T16:01:30.670Z</time>
</trkpt>
<trkpt lat="30.9138600" lon="34.9538000">
<ele>433.719971</ele>
<time>2024-03-15T16:01:30.670Z</time>
</trkpt>
<trkpt lat="30.9140700" lon="34.9542600">
<ele>432.880005</ele>
<time>2024-03-15T16:01:30.670Z</time>
</trkpt>
<trkpt lat="30.9142900" lon="34.9547200">
<ele>431.779999</ele>
<time>2024-03-15T16:01:30.670Z</time>
</trkpt>
<trkpt lat="30.9145100" lon="34.9551900">
<ele>426.899994</ele>
<time>2024-03-15T16:01:30.670Z</time>
</trkpt>
<trkpt lat="30.9147300" lon="34.9556500">
<ele>427.989990</ele>
<time>2024-03-15T16:01:30.670Z</time>
</trkpt>
<trkpt lat="30.9147900" lon="34.9559400">
<ele>429.650024</ele>
<time>2024-03-15T16:01:30.670Z</time>
</trkpt>
<trkpt lat="30.9150700" lon="34.9564200">
<ele>428.740021</ele>
<time>2024-03-15T16:01:30.670Z</time>
</trkpt>
<trkpt lat="30.9153500" lon="34.9569000">
<ele>426.980011</ele>
<time>2024-03-15T16:01:30.670Z</time>
</trkpt>
<trkpt lat="30.9154200" lon="34.9572700">
<ele>428.589996</ele>
<time>2024-03-15T16:01:30.670Z</time>
</trkpt>
<trkpt lat="30.9154300" lon="34.9575000">
<ele>429.260010</ele>
<time>2024-03-15T16:01:30.670Z</time>
</trkpt>
<trkpt lat="30.9154600" lon="34.9576300">
<ele>430.559998</ele>
<time>2024-03-15T16:01:30.670Z</time>
</trkpt>
<trkpt lat="30.9157500" lon="34.9578000">
<ele>436.899994</ele>
<time>2024-03-15T16:01:30.670Z</time>
</trkpt>
<trkpt lat="30.9160000" lon="34.9582500">
<ele>442.720001</ele>
<time>2024-03-15T16:01:30.670Z</time>
</trkpt>
<trkpt lat="30.9162400" lon="34.9586900">
<ele>439.580017</ele>
<time>2024-03-15T16:01:30.670Z</time>
</trkpt>
<trkpt lat="30.9162800" lon="34.9589700">
<ele>435.600006</ele>
<time>2024-03-15T16:01:30.670Z</time>
</trkpt>
<trkpt lat="30.9162900" lon="34.9592400">
<ele>431.230011</ele>
<time>2024-03-15T16:01:30.670Z</time>
</trkpt>
<trkpt lat="30.9163300" lon="34.9594300">
<ele>428.779999</ele>
<time>2024-03-15T16:01:30.670Z</time>
</trkpt>
<trkpt lat="30.9165300" lon="34.9597400">
<ele>428.459991</ele>
<time>2024-03-15T16:01:30.670Z</time>
</trkpt>
<trkpt lat="30.9167400" lon="34.9602500">
<ele>429.720001</ele>
<time>2024-03-15T16:01:30.670Z</time>
</trkpt>
<trkpt lat="30.9169600" lon="34.9607600">
<ele>431.500000</ele>
<time>2024-03-15T16:01:30.670Z</time>
</trkpt>
<trkpt lat="30.9171700" lon="34.9612800">
<ele>428.119995</ele>
<time>2024-03-15T16:01:30.670Z</time>
</trkpt>
<trkpt lat="30.9173800" lon="34.9617900">
<ele>425.869995</ele>
<time>2024-03-15T16:01:30.670Z</time>
</trkpt>
<trkpt lat="30.9174900" lon="34.9623200">
<ele>420.639984</ele>
<time>2024-03-15T16:01:30.670Z</time>
</trkpt>
<trkpt lat="30.9175800" lon="34.9630100">
<ele>419.209991</ele>
<time>2024-03-15T16:01:30.670Z</time>
</trkpt>
<trkpt lat="30.9176700" lon="34.9636900">
<ele>425.049988</ele>
<time>2024-03-15T16:01:30.670Z</time>
</trkpt>
<trkpt lat="30.9177600" lon="34.9643800">
<ele>428.239990</ele>
<time>2024-03-15T16:01:30.670Z</time>
</trkpt>
<trkpt lat="30.9178800" lon="34.9647000">
<ele>429.640015</ele>
<time>2024-03-15T16:01:30.670Z</time>
</trkpt>
<trkpt lat="30.9182400" lon="34.9653200">
<ele>421.660004</ele>
<time>2024-03-15T16:01:30.670Z</time>
</trkpt>
<trkpt lat="30.9185200" lon="34.9659600">
<ele>428.620026</ele>
<time>2024-03-15T16:01:30.670Z</time>
</trkpt>
<trkpt lat="30.9188400" lon="34.9667400">
<ele>428.910004</ele>
<time>2024-03-15T16:01:30.670Z</time>
</trkpt>
<trkpt lat="30.9190800" lon="34.9673700">
<ele>429.369995</ele>
<time>2024-03-15T16:01:30.670Z</time>
</trkpt>
<trkpt lat="30.9193200" lon="34.9680100">
<ele>429.890015</ele>
<time>2024-03-15T16:01:30.670Z</time>
</trkpt>
<trkpt lat="30.9195600" lon="34.9686400">
<ele>419.519989</ele>
<time>2024-03-15T16:01:30.670Z</time>
</trkpt>
<trkpt lat="30.9196200" lon="34.9694400">
<ele>414.600006</ele>
<time>2024-03-15T16:01:30.670Z</time>
</trkpt>
<trkpt lat="30.9198400" lon="34.9699200">
<ele>414.169983</ele>
<time>2024-03-15T16:01:30.670Z</time>
</trkpt>
<trkpt lat="30.9200000" lon="34.9704700">
<ele>414.690002</ele>
<time>2024-03-15T16:01:30.670Z</time>
</trkpt>
<trkpt lat="30.9201500" lon="34.9710100">
<ele>415.449982</ele>
<time>2024-03-15T16:01:30.670Z</time>
</trkpt>
<trkpt lat="30.9202700" lon="34.9711500">
<ele>411.849976</ele>
<time>2024-03-15T16:01:30.670Z</time>
</trkpt>
<trkpt lat="30.9205300" lon="34.9712700">
<ele>403.589996</ele>
<time>2024-03-15T16:01:30.670Z</time>
</trkpt>
<trkpt lat="30.9210000" lon="34.9717900">
<ele>401.220001</ele>
<time>2024-03-15T16:01:30.670Z</time>
</trkpt>
<trkpt lat="30.9214600" lon="34.9723100">
<ele>398.480011</ele>
<time>2024-03-15T16:01:30.670Z</time>
</trkpt>
<trkpt lat="30.9216400" lon="34.9729200">
<ele>397.859985</ele>
<time>2024-03-15T16:01:30.670Z</time>
</trkpt>
<trkpt lat="30.9219100" lon="34.9733900">
<ele>398.889984</ele>
<time>2024-03-15T16:01:30.670Z</time>
</trkpt>
<trkpt lat="30.9223200" lon="34.9738000">
<ele>396.330017</ele>
<time>2024-03-15T16:01:30.670Z</time>
</trkpt>
<trkpt lat="30.9228600" lon="34.9739200">
<ele>399.149994</ele>
<time>2024-03-15T16:01:30.670Z</time>
</trkpt>
<trkpt lat="30.9233300" lon="34.9741800">
<ele>399.110016</ele>
<time>2024-03-15T16:01:30.670Z</time>
</trkpt>
<trkpt lat="30.9237900" lon="34.9744300">
<ele>398.400024</ele>
<time>2024-03-15T16:01:30.670Z</time>
</trkpt>
<trkpt lat="30.9240900" lon="34.9747700">
<ele>397.490021</ele>
<time>2024-03-15T16:01:30.670Z</time>
</trkpt>
<trkpt lat="30.9247900" lon="34.9752700">
<ele>396.290009</ele>
<time>2024-03-15T16:01:30.670Z</time>
</trkpt>
<trkpt lat="30.9252900" lon="34.9754900">
<ele>391.049988</ele>
<time>2024-03-15T16:01:30.670Z</time>
</trkpt>
<trkpt lat="30.9256700" lon="34.9758000">
<ele>383.320007</ele>
<time>2024-03-15T16:01:30.670Z</time>
</trkpt>
<trkpt lat="30.9262800" lon="34.9760900">
<ele>387.539978</ele>
<time>2024-03-15T16:01:30.670Z</time>
</trkpt>
<trkpt lat="30.9268200" lon="34.9764300">
<ele>384.390015</ele>
<time>2024-03-15T16:01:30.670Z</time>
</trkpt>
<trkpt lat="30.9273600" lon="34.9767800">
<ele>381.409973</ele>
<time>2024-03-15T16:01:30.670Z</time>
</trkpt>
<trkpt lat="30.9276300" lon="34.9770000">
<ele>380.970001</ele>
<time>2024-03-15T16:01:30.670Z</time>
</trkpt>
<trkpt lat="30.9282500" lon="34.9776500">
<ele>384.619995</ele>
<time>2024-03-15T16:01:30.670Z</time>
</trkpt>
<trkpt lat="30.9286500" lon="34.9779400">
<ele>384.050018</ele>
<time>2024-03-15T16:01:30.670Z</time>
</trkpt>
<trkpt lat="30.9290500" lon="34.9782400">
<ele>385.130005</ele>
<time>2024-03-15T16:01:30.670Z</time>
</trkpt>
<trkpt lat="30.9294500" lon="34.9785300">
<ele>386.200012</ele>
<time>2024-03-15T16:01:30.670Z</time>
</trkpt>
<trkpt lat="30.9298500" lon="34.9788200">
<ele>375.750000</ele>
<time>2024-03-15T16:01:30.670Z</time>
</trkpt>
<trkpt lat="30.9300100" lon="34.9788900">
<ele>373.180023</ele>
<time>2024-03-15T16:01:30.670Z</time>
</trkpt>
<trkpt lat="30.9307100" lon="34.9789800">
<ele>379.410004</ele>
<time>2024-03-15T16:01:30.670Z</time>
</trkpt>
<trkpt lat="30.9311600" lon="34.9791500">
<ele>376.410004</ele>
<time>2024-03-15T16:01:30.670Z</time>
</trkpt>
<trkpt lat="30.9316200" lon="34.9793200">
<ele>375.690002</ele>
<time>2024-03-15T16:01:30.670Z</time>
</trkpt>
<trkpt lat="30.9320700" lon="34.9794900">
<ele>376.070007</ele>
<time>2024-03-15T16:01:30.670Z</time>
</trkpt>
<trkpt lat="30.9325600" lon="34.9798600">
<ele>375.739990</ele>
<time>2024-03-15T16:01:30.670Z</time>
</trkpt>
<trkpt lat="30.9330400" lon="34.9802300">
<ele>369.949982</ele>
<time>2024-03-15T16:01:30.670Z</time>
</trkpt>
<trkpt lat="30.9336100" lon="34.9805500">
<ele>369.970001</ele>
<time>2024-03-15T16:01:30.670Z</time>
</trkpt>
<trkpt lat="30.9341800" lon="34.9808800">
<ele>369.729980</ele>
<time>2024-03-15T16:01:30.670Z</time>
</trkpt>
<trkpt lat="30.9347900" lon="34.9814500">
<ele>371.640015</ele>
<time>2024-03-15T16:01:30.670Z</time>
</trkpt>
<trkpt lat="30.9353300" lon="34.9817000">
<ele>377.440002</ele>
<time>2024-03-15T16:01:30.670Z</time>
</trkpt>
<trkpt lat="30.9358700" lon="34.9819500">
<ele>366.529999</ele>
<time>2024-03-15T16:01:30.670Z</time>
</trkpt>
<trkpt lat="30.9366100" lon="34.9824700">
<ele>368.609985</ele>
<time>2024-03-15T16:01:30.670Z</time>
</trkpt>
<trkpt lat="30.9371000" lon="34.9826000">
<ele>362.919983</ele>
<time>2024-03-15T16:01:30.670Z</time>
</trkpt>
<trkpt lat="30.9375900" lon="34.9827200">
<ele>361.399994</ele>
<time>2024-03-15T16:01:30.670Z</time>
</trkpt>
<trkpt lat="30.9380600" lon="34.9827500">
<ele>361.309998</ele>
<time>2024-03-15T16:01:30.670Z</time>
</trkpt>
<trkpt lat="30.9384900" lon="34.9829800">
<ele>363.369995</ele>
<time>2024-03-15T16:01:30.670Z</time>
</trkpt>
<trkpt lat="30.9389300" lon="34.9832100">
<ele>362.270020</ele>
<time>2024-03-15T16:01:30.670Z</time>
</trkpt>
<trkpt lat="30.9393600" lon="34.9834400">
<ele>357.059998</ele>
<time>2024-03-15T16:01:30.670Z</time>
</trkpt>
<trkpt lat="30.9398000" lon="34.9836700">
<ele>352.639984</ele>
<time>2024-03-15T16:01:30.670Z</time>
</trkpt>
<trkpt lat="30.9402300" lon="34.9839000">
<ele>353.910004</ele>
<time>2024-03-15T16:01:30.670Z</time>
</trkpt>
<trkpt lat="30.9406100" lon="34.9842200">
<ele>351.869995</ele>
<time>2024-03-15T16:01:30.670Z</time>
</trkpt>
<trkpt lat="30.9409800" lon="34.9845300">
<ele>346.720001</ele>
<time>2024-03-15T16:01:30.670Z</time>
</trkpt>
<trkpt lat="30.9412000" lon="34.9852300">
<ele>344.949982</ele>
<time>2024-03-15T16:01:30.670Z</time>
</trkpt>
<trkpt lat="30.9417900" lon="34.9856100">
<ele>342.299988</ele>
<time>2024-03-15T16:01:30.670Z</time>
</trkpt>
<trkpt lat="30.9422900" lon="34.9854000">
<ele>339.859985</ele>
<time>2024-03-15T16:01:30.670Z</time>
</trkpt>
<trkpt lat="30.9428000" lon="34.9851900">
<ele>339.429993</ele>
<time>2024-03-15T16:01:30.670Z</time>
</trkpt>
<trkpt lat="30.9433000" lon="34.9849800">
<ele>340.970001</ele>
<time>2024-03-15T16:01:30.670Z</time>
</trkpt>
<trkpt lat="30.9441400" lon="34.9848400">
<ele>339.669983</ele>
<time>2024-03-15T16:01:30.670Z</time>
</trkpt>
<trkpt lat="30.9447300" lon="34.9848100">
<ele>337.709991</ele>
<time>2024-03-15T16:01:30.670Z</time>
</trkpt>
<trkpt lat="30.9453200" lon="34.9847800">
<ele>340.090027</ele>
<time>2024-03-15T16:01:30.670Z</time>
</trkpt>
<trkpt lat="30.9457700" lon="34.9847400">
<ele>342.700012</ele>
<time>2024-03-15T16:01:30.670Z</time>
</trkpt>
<trkpt lat="30.9462300" lon="34.9846900">
<ele>340.190002</ele>
<time>2024-03-15T16:01:30.670Z</time>
</trkpt>
<trkpt lat="30.9463500" lon="34.9846300">
<ele>337.359985</ele>
<time>2024-03-15T16:01:30.670Z</time>
</trkpt>
<trkpt lat="30.9466800" lon="34.9845600">
<ele>336.299988</ele>
<time>2024-03-15T16:01:30.670Z</time>
</trkpt>
<trkpt lat="30.9469200" lon="34.9843600">
<ele>340.589996</ele>
<time>2024-03-15T16:01:30.670Z</time>
</trkpt>
<trkpt lat="30.9473700" lon="34.9836500">
<ele>348.929993</ele>
<time>2024-03-15T16:01:30.670Z</time>
</trkpt>
<trkpt lat="30.9478800" lon="34.9830800">
<ele>352.450012</ele>
<time>2024-03-15T16:01:30.670Z</time>
</trkpt>
<trkpt lat="30.9481000" lon="34.9829800">
<ele>354.279999</ele>
<time>2024-03-15T16:01:30.670Z</time>
</trkpt>
<trkpt lat="30.9481500" lon="34.9827400">
<ele>354.290009</ele>
<time>2024-03-15T16:01:30.670Z</time>
</trkpt>
<trkpt lat="30.9482400" lon="34.9825400">
<ele>353.250000</ele>
<time>2024-03-15T16:01:30.670Z</time>
</trkpt>
<trkpt lat="30.9486700" lon="34.9820700">
<ele>353.050018</ele>
<time>2024-03-15T16:01:30.670Z</time>
</trkpt>
<trkpt lat="30.9491400" lon="34.9817000">
<ele>363.279999</ele>
<time>2024-03-15T16:01:30.670Z</time>
</trkpt>
<trkpt lat="30.9495200" lon="34.9815000">
<ele>364.740021</ele>
<time>2024-03-15T16:01:30.670Z</time>
</trkpt>
<trkpt lat="30.9499200" lon="34.9813600">
<ele>365.180023</ele>
<time>2024-03-15T16:01:30.670Z</time>
</trkpt>
<trkpt lat="30.9504200" lon="34.9811400">
<ele>358.920013</ele>
<time>2024-03-15T16:01:30.670Z</time>
</trkpt>
<trkpt lat="30.9509200" lon="34.9809100">
<ele>363.850006</ele>
<time>2024-03-15T16:01:30.670Z</time>
</trkpt>
<trkpt lat="30.9510400" lon="34.9809000">
<ele>365.050018</ele>
<time>2024-03-15T16:01:30.670Z</time>
</trkpt>
<trkpt lat="30.9513300" lon="34.9809000">
<ele>365.380005</ele>
<time>2024-03-15T16:01:30.670Z</time>
</trkpt>
<trkpt lat="30.9518100" lon="34.9809700">
<ele>365.239990</ele>
<time>2024-03-15T16:01:30.670Z</time>
</trkpt>
<trkpt lat="30.9522800" lon="34.9810400">
<ele>352.930023</ele>
<time>2024-03-15T16:01:30.670Z</time>
</trkpt>
<trkpt lat="30.9527600" lon="34.9810700">
<ele>346.130005</ele>
<time>2024-03-15T16:01:30.670Z</time>
</trkpt>
<trkpt lat="30.9532300" lon="34.9811100">
<ele>355.930023</ele>
<time>2024-03-15T16:01:30.670Z</time>
</trkpt>
<trkpt lat="30.9537100" lon="34.9811400">
<ele>362.589996</ele>
<time>2024-03-15T16:01:30.670Z</time>
</trkpt>
<trkpt lat="30.9541300" lon="34.9812100">
<ele>366.630005</ele>
<time>2024-03-15T16:01:30.670Z</time>
</trkpt>
<trkpt lat="30.9546600" lon="34.9812300">
<ele>380.839996</ele>
<time>2024-03-15T16:01:30.670Z</time>
</trkpt>
<trkpt lat="30.9551900" lon="34.9812600">
<ele>383.760010</ele>
<time>2024-03-15T16:01:30.670Z</time>
</trkpt>
<trkpt lat="30.9557200" lon="34.9812800">
<ele>380.580017</ele>
<time>2024-03-15T16:01:30.670Z</time>
</trkpt>
<trkpt lat="30.9563100" lon="34.9813800">
<ele>375.519989</ele>
<time>2024-03-15T16:01:30.670Z</time>
</trkpt>
<trkpt lat="30.9567700" lon="34.9814100">
<ele>380.599976</ele>
<time>2024-03-15T16:01:30.670Z</time>
</trkpt>
<trkpt lat="30.9572300" lon="34.9814400">
<ele>388.689972</ele>
<time>2024-03-15T16:01:30.670Z</time>
</trkpt>
<trkpt lat="30.9579500" lon="34.9815300">
<ele>391.290009</ele>
<time>2024-03-15T16:01:30.670Z</time>
</trkpt>
<trkpt lat="30.9582600" lon="34.9816000">
<ele>393.239990</ele>
<time>2024-03-15T16:01:30.670Z</time>
</trkpt>
<trkpt lat="30.9590000" lon="34.9816800">
<ele>406.320007</ele>
<time>2024-03-15T16:01:30.670Z</time>
</trkpt>
<trkpt lat="30.9595100" lon="34.9821100">
<ele>413.139984</ele>
<time>2024-03-15T16:01:30.670Z</time>
</trkpt>
<trkpt lat="30.9597700" lon="34.9824800">
<ele>414.329987</ele>
<time>2024-03-15T16:01:30.670Z</time>
</trkpt>
<trkpt lat="30.9597700" lon="34.9824800">
<ele>414.329987</ele>
<time>2024-03-15T16:01:30.670Z</time>
</trkpt>
<trkpt lat="30.9597600" lon="34.9824800">
<ele>414.260010</ele>
<time>2024-03-15T16:01:30.670Z</time>
</trkpt>
<trkpt lat="30.9598700" lon="34.9826600">
<ele>416.179993</ele>
<time>2024-03-15T16:01:30.670Z</time>
</trkpt>
<trkpt lat="30.9599700" lon="34.9827800">
<ele>416.989990</ele>
<time>2024-03-15T16:01:30.670Z</time>
</trkpt>
<trkpt lat="30.9600800" lon="34.9826600">
<ele>418.139984</ele>
<time>2024-03-15T16:01:30.670Z</time>
</trkpt>
<trkpt lat="30.9602800" lon="34.9824000">
<ele>420.929993</ele>
<time>2024-03-15T16:01:30.670Z</time>
</trkpt>
<trkpt lat="30.9604200" lon="34.9822800">
<ele>419.429993</ele>
<time>2024-03-15T16:01:30.670Z</time>
</trkpt>
<trkpt lat="30.9604900" lon="34.9822200">
<ele>418.210022</ele>
<time>2024-03-15T16:01:30.670Z</time>
</trkpt>
<trkpt lat="30.9605400" lon="34.9821800">
<ele>417.600006</ele>
<time>2024-03-15T16:01:30.670Z</time>
</trkpt>
<trkpt lat="30.9606000" lon="34.9821500">
<ele>417.899994</ele>
<time>2024-03-15T16:01:30.670Z</time>
</trkpt>
<trkpt lat="30.9606500" lon="34.9821400">
<ele>418.569977</ele>
<time>2024-03-15T16:01:30.670Z</time>
</trkpt>
<trkpt lat="30.9606500" lon="34.9821400">
<ele>418.569977</ele>
<time>2024-03-15T16:01:30.670Z</time>
</trkpt>
<trkpt lat="30.9608800" lon="34.9821000">
<ele>421.119995</ele>
<time>2024-03-15T16:01:30.670Z</time>
</trkpt>
<trkpt lat="30.9609600" lon="34.9821800">
<ele>421.699982</ele>
<time>2024-03-15T16:01:30.670Z</time>
</trkpt>
<trkpt lat="30.9608000" lon="34.9824500">
<ele>422.110016</ele>
<time>2024-03-15T16:01:30.670Z</time>
</trkpt>
<trkpt lat="30.9607800" lon="34.9825300">
<ele>422.259979</ele>
<time>2024-03-15T16:01:30.670Z</time>
</trkpt>
<trkpt lat="30.9607800" lon="34.9825300">
<ele>422.259979</ele>
<time>2024-03-15T16:01:30.670Z</time>
</trkpt>
<trkpt lat="30.9607800" lon="34.9825300">
<ele>422.259979</ele>
<time>2024-03-15T16:01:30.670Z</time>
</trkpt>
<trkpt lat="30.9607800" lon="34.9825300">
<ele>422.259979</ele>
<time>2024-03-15T16:01:30.670Z</time>
</trkpt>
<trkpt lat="30.9608000" lon="34.9824500">
<ele>422.110016</ele>
<time>2024-03-15T16:01:30.670Z</time>
</trkpt>
<trkpt lat="30.9609600" lon="34.9821800">
<ele>421.699982</ele>
<time>2024-03-15T16:01:30.670Z</time>
</trkpt>
<trkpt lat="30.9608800" lon="34.9821000">
<ele>421.119995</ele>
<time>2024-03-15T16:01:30.670Z</time>
</trkpt>
<trkpt lat="30.9608400" lon="34.9821100">
<ele>421.190002</ele>
<time>2024-03-15T16:01:30.670Z</time>
</trkpt>
<trkpt lat="30.9608400" lon="34.9821100">
<ele>421.190002</ele>
<time>2024-03-15T16:01:30.670Z</time>
</trkpt>
<trkpt lat="30.9606000" lon="34.9821500">
<ele>417.899994</ele>
<time>2024-03-15T16:01:30.670Z</time>
</trkpt>
<trkpt lat="30.9605400" lon="34.9821800">
<ele>417.600006</ele>
<time>2024-03-15T16:01:30.670Z</time>
</trkpt>
<trkpt lat="30.9604900" lon="34.9822200">
<ele>418.210022</ele>
<time>2024-03-15T16:01:30.670Z</time>
</trkpt>
<trkpt lat="30.9604200" lon="34.9822800">
<ele>419.429993</ele>
<time>2024-03-15T16:01:30.670Z</time>
</trkpt>
<trkpt lat="30.9602800" lon="34.9824000">
<ele>420.929993</ele>
<time>2024-03-15T16:01:30.670Z</time>
</trkpt>
<trkpt lat="30.9600800" lon="34.9826600">
<ele>418.139984</ele>
<time>2024-03-15T16:01:30.670Z</time>
</trkpt>
<trkpt lat="30.9599700" lon="34.9827800">
<ele>416.989990</ele>
<time>2024-03-15T16:01:30.670Z</time>
</trkpt>
<trkpt lat="30.9601100" lon="34.9829700">
<ele>417.470001</ele>
<time>2024-03-15T16:01:30.670Z</time>
</trkpt>
<trkpt lat="30.9602700" lon="34.9831400">
<ele>416.120026</ele>
<time>2024-03-15T16:01:30.670Z</time>
</trkpt>
<trkpt lat="30.9602700" lon="34.9831300">
<ele>416.339996</ele>
<time>2024-03-15T16:01:30.670Z</time>
</trkpt>
<trkpt lat="30.9602700" lon="34.9831300">
<ele>416.339996</ele>
<time>2024-03-15T16:01:30.670Z</time>
</trkpt>
<trkpt lat="30.9605000" lon="34.9833600">
<ele>411.920013</ele>
<time>2024-03-15T16:01:30.670Z</time>
</trkpt>
<trkpt lat="30.9610500" lon="34.9837300">
<ele>418.420013</ele>
<time>2024-03-15T16:01:30.670Z</time>
</trkpt>
<trkpt lat="30.9616400" lon="34.9829900">
<ele>427.839996</ele>
<time>2024-03-15T16:01:30.670Z</time>
</trkpt>
<trkpt lat="30.9621000" lon="34.9825000">
<ele>424.119995</ele>
<time>2024-03-15T16:01:30.670Z</time>
</trkpt>
<trkpt lat="30.9624200" lon="34.9822600">
<ele>425.660004</ele>
<time>2024-03-15T16:01:30.670Z</time>
</trkpt>
<trkpt lat="30.9630700" lon="34.9819200">
<ele>429.000000</ele>
<time>2024-03-15T16:01:30.670Z</time>
</trkpt>
<trkpt lat="30.9635200" lon="34.9817400">
<ele>428.150024</ele>
<time>2024-03-15T16:01:30.670Z</time>
</trkpt>
<trkpt lat="30.9639600" lon="34.9815600">
<ele>431.040009</ele>
<time>2024-03-15T16:01:30.670Z</time>
</trkpt>
<trkpt lat="30.9644000" lon="34.9814300">
<ele>432.109985</ele>
<time>2024-03-15T16:01:30.670Z</time>
</trkpt>
<trkpt lat="30.9648400" lon="34.9812900">
<ele>436.869995</ele>
<time>2024-03-15T16:01:30.670Z</time>
</trkpt>
<trkpt lat="30.9652800" lon="34.9811600">
<ele>439.750000</ele>
<time>2024-03-15T16:01:30.670Z</time>
</trkpt>
<trkpt lat="30.9657100" lon="34.9810200">
<ele>447.959991</ele>
<time>2024-03-15T16:01:30.670Z</time>
</trkpt>
<trkpt lat="30.9661500" lon="34.9808900">
<ele>450.620026</ele>
<time>2024-03-15T16:01:30.670Z</time>
</trkpt>
<trkpt lat="30.9665900" lon="34.9807500">
<ele>454.780029</ele>
<time>2024-03-15T16:01:30.670Z</time>
</trkpt>
<trkpt lat="30.9670300" lon="34.9806200">
<ele>464.320007</ele>
<time>2024-03-15T16:01:30.670Z</time>
</trkpt>
<trkpt lat="30.9672100" lon="34.9805300">
<ele>468.339996</ele>
<time>2024-03-15T16:01:30.670Z</time>
</trkpt>
<trkpt lat="30.9676700" lon="34.9800300">
<ele>472.399994</ele>
<time>2024-03-15T16:01:30.670Z</time>
</trkpt>
<trkpt lat="30.9681200" lon="34.9796800">
<ele>483.679993</ele>
<time>2024-03-15T16:01:30.670Z</time>
</trkpt>
<trkpt lat="30.9685500" lon="34.9794200">
<ele>492.960022</ele>
<time>2024-03-15T16:01:30.670Z</time>
</trkpt>
<trkpt lat="30.9685900" lon="34.9792000">
<ele>493.250000</ele>
<time>2024-03-15T16:01:30.670Z</time>
</trkpt>
<trkpt lat="30.9686200" lon="34.9786800">
<ele>495.679993</ele>
<time>2024-03-15T16:01:30.670Z</time>
</trkpt>
<trkpt lat="30.9688600" lon="34.9786900">
<ele>507.050018</ele>
<time>2024-03-15T16:01:30.670Z</time>
</trkpt>
<trkpt lat="30.9689000" lon="34.9787800">
<ele>508.079987</ele>
<time>2024-03-15T16:01:30.670Z</time>
</trkpt>
<trkpt lat="30.9689300" lon="34.9790300">
<ele>507.529999</ele>
<time>2024-03-15T16:01:30.670Z</time>
</trkpt>
<trkpt lat="30.9689300" lon="34.9792100">
<ele>507.009979</ele>
<time>2024-03-15T16:01:30.670Z</time>
</trkpt>
<trkpt lat="30.9687000" lon="34.9798000">
<ele>503.039978</ele>
<time>2024-03-15T16:01:30.670Z</time>
</trkpt>
<trkpt lat="30.9686800" lon="34.9799400">
<ele>504.619995</ele>
<time>2024-03-15T16:01:30.670Z</time>
</trkpt>
<trkpt lat="30.9686800" lon="34.9803900">
<ele>498.870026</ele>
<time>2024-03-15T16:01:30.670Z</time>
</trkpt>
<trkpt lat="30.9688000" lon="34.9804000">
<ele>500.979980</ele>
<time>2024-03-15T16:01:30.670Z</time>
</trkpt>
<trkpt lat="30.9688900" lon="34.9803900">
<ele>502.839996</ele>
<time>2024-03-15T16:01:30.670Z</time>
</trkpt>
<trkpt lat="30.9689500" lon="34.9803200">
<ele>505.939972</ele>
<time>2024-03-15T16:01:30.670Z</time>
</trkpt>
<trkpt lat="30.9690200" lon="34.9799000">
<ele>510.489990</ele>
<time>2024-03-15T16:01:30.670Z</time>
</trkpt>
<trkpt lat="30.9693200" lon="34.9793800">
<ele>518.559998</ele>
<time>2024-03-15T16:01:30.670Z</time>
</trkpt>
<trkpt lat="30.9693300" lon="34.9791100">
<ele>520.969971</ele>
<time>2024-03-15T16:01:30.670Z</time>
</trkpt>
<trkpt lat="30.9693200" lon="34.9784000">
<ele>528.400024</ele>
<time>2024-03-15T16:01:30.670Z</time>
</trkpt>
<trkpt lat="30.9692700" lon="34.9781800">
<ele>529.369995</ele>
<time>2024-03-15T16:01:30.670Z</time>
</trkpt>
<trkpt lat="30.9689500" lon="34.9778200">
<ele>526.700012</ele>
<time>2024-03-15T16:01:30.670Z</time>
</trkpt>
<trkpt lat="30.9689500" lon="34.9774100">
<ele>533.450012</ele>
<time>2024-03-15T16:01:30.670Z</time>
</trkpt>
<trkpt lat="30.9689700" lon="34.9773000">
<ele>534.429993</ele>
<time>2024-03-15T16:01:30.670Z</time>
</trkpt>
<trkpt lat="30.9695600" lon="34.9767900">
<ele>555.919983</ele>
<time>2024-03-15T16:01:30.670Z</time>
</trkpt>
<trkpt lat="30.9695900" lon="34.9767400">
<ele>557.299988</ele>
<time>2024-03-15T16:01:30.670Z</time>
</trkpt>
<trkpt lat="30.9696300" lon="34.9761400">
<ele>552.239990</ele>
<time>2024-03-15T16:01:30.670Z</time>
</trkpt>
<trkpt lat="30.9697000" lon="34.9761200">
<ele>555.119995</ele>
<time>2024-03-15T16:01:30.670Z</time>
</trkpt>
<trkpt lat="30.9701800" lon="34.9761000">
<ele>566.580017</ele>
<time>2024-03-15T16:01:30.670Z</time>
</trkpt>
<trkpt lat="30.9703100" lon="34.9760000">
<ele>570.479980</ele>
<time>2024-03-15T16:01:30.670Z</time>
</trkpt>
<trkpt lat="30.9704400" lon="34.9756700">
<ele>571.580017</ele>
<time>2024-03-15T16:01:30.670Z</time>
</trkpt>
<trkpt lat="30.9706000" lon="34.9750500">
<ele>568.570007</ele>
<time>2024-03-15T16:01:30.670Z</time>
</trkpt>
<trkpt lat="30.9707500" lon="34.9744300">
<ele>559.849976</ele>
<time>2024-03-15T16:01:30.670Z</time>
</trkpt>
<trkpt lat="30.9712700" lon="34.9741100">
<ele>577.119995</ele>
<time>2024-03-15T16:01:30.670Z</time>
</trkpt>
<trkpt lat="30.9717800" lon="34.9737900">
<ele>583.079956</ele>
<time>2024-03-15T16:01:30.670Z</time>
</trkpt>
<trkpt lat="30.9718300" lon="34.9735800">
<ele>583.359985</ele>
<time>2024-03-15T16:01:30.670Z</time>
</trkpt>
<trkpt lat="30.9718200" lon="34.9728300">
<ele>582.159973</ele>
<time>2024-03-15T16:01:30.670Z</time>
</trkpt>
<trkpt lat="30.9717800" lon="34.9721800">
<ele>582.200012</ele>
<time>2024-03-15T16:01:30.670Z</time>
</trkpt>
<trkpt lat="30.9717400" lon="34.9715200">
<ele>582.830017</ele>
<time>2024-03-15T16:01:30.670Z</time>
</trkpt>
<trkpt lat="30.9717100" lon="34.9715100">
<ele>581.820007</ele>
<time>2024-03-15T16:01:30.670Z</time>
</trkpt>
<trkpt lat="30.9715400" lon="34.9716100">
<ele>580.340027</ele>
<time>2024-03-15T16:01:30.670Z</time>
</trkpt>
<trkpt lat="30.9711700" lon="34.9722300">
<ele>579.159973</ele>
<time>2024-03-15T16:01:30.670Z</time>
</trkpt>
<trkpt lat="30.9709500" lon="34.9723100">
<ele>580.690002</ele>
<time>2024-03-15T16:01:30.670Z</time>
</trkpt>
<trkpt lat="30.9707700" lon="34.9722900">
<ele>584.900024</ele>
<time>2024-03-15T16:01:30.670Z</time>
</trkpt>
<trkpt lat="30.9705600" lon="34.9723000">
<ele>592.320007</ele>
<time>2024-03-15T16:01:30.670Z</time>
</trkpt>
<trkpt lat="30.9703300" lon="34.9722900">
<ele>593.200012</ele>
<time>2024-03-15T16:01:30.670Z</time>
</trkpt>
<trkpt lat="30.9698800" lon="34.9720500">
<ele>597.390015</ele>
<time>2024-03-15T16:01:30.670Z</time>
</trkpt>
<trkpt lat="30.9696800" lon="34.9720200">
<ele>590.380005</ele>
<time>2024-03-15T16:01:30.670Z</time>
</trkpt>
<trkpt lat="30.9692600" lon="34.9717700">
<ele>587.579956</ele>
<time>2024-03-15T16:01:30.670Z</time>
</trkpt>
<trkpt lat="30.9691300" lon="34.9714500">
<ele>590.000000</ele>
<time>2024-03-15T16:01:30.670Z</time>
</trkpt>
<trkpt lat="30.9691000" lon="34.9712100">
<ele>589.119995</ele>
<time>2024-03-15T16:01:30.670Z</time>
</trkpt>
<trkpt lat="30.9690400" lon="34.9711500">
<ele>589.010010</ele>
<time>2024-03-15T16:01:30.670Z</time>
</trkpt>
<trkpt lat="30.9688800" lon="34.9711100">
<ele>590.070007</ele>
<time>2024-03-15T16:01:30.670Z</time>
</trkpt>
<trkpt lat="30.9685900" lon="34.9709300">
<ele>594.919983</ele>
<time>2024-03-15T16:01:30.670Z</time>
</trkpt>
<trkpt lat="30.9682000" lon="34.9710100">
<ele>598.190002</ele>
<time>2024-03-15T16:01:30.670Z</time>
</trkpt>
<trkpt lat="30.9679800" lon="34.9709900">
<ele>599.140015</ele>
<time>2024-03-15T16:01:30.670Z</time>
</trkpt>
<trkpt lat="30.9675900" lon="34.9705200">
<ele>611.750000</ele>
<time>2024-03-15T16:01:30.670Z</time>
</trkpt>
<trkpt lat="30.9674000" lon="34.9704600">
<ele>613.960022</ele>
<time>2024-03-15T16:01:30.670Z</time>
</trkpt>
<trkpt lat="30.9667300" lon="34.9703900">
<ele>616.500000</ele>
<time>2024-03-15T16:01:30.670Z</time>
</trkpt>
<trkpt lat="30.9666900" lon="34.9702200">
<ele>617.510010</ele>
<time>2024-03-15T16:01:30.670Z</time>
</trkpt>
<trkpt lat="30.9666300" lon="34.9693000">
<ele>622.010010</ele>
<time>2024-03-15T16:01:30.670Z</time>
</trkpt>
<trkpt lat="30.9666400" lon="34.9691200">
<ele>620.469971</ele>
<time>2024-03-15T16:01:30.670Z</time>
</trkpt>
<trkpt lat="30.9666700" lon="34.9690000">
<ele>619.359985</ele>
<time>2024-03-15T16:01:30.670Z</time>
</trkpt>
<trkpt lat="30.9666700" lon="34.9686700">
<ele>619.760010</ele>
<time>2024-03-15T16:01:30.670Z</time>
</trkpt>
<trkpt lat="30.9666400" lon="34.9679000">
<ele>619.410034</ele>
<time>2024-03-15T16:01:30.670Z</time>
</trkpt>
<trkpt lat="30.9666600" lon="34.9676500">
<ele>617.669983</ele>
<time>2024-03-15T16:01:30.670Z</time>
</trkpt>
<trkpt lat="30.9666400" lon="34.9674700">
<ele>617.760010</ele>
<time>2024-03-15T16:01:30.670Z</time>
</trkpt>
<trkpt lat="30.9665000" lon="34.9670700">
<ele>621.149963</ele>
<time>2024-03-15T16:01:30.670Z</time>
</trkpt>
<trkpt lat="30.9661700" lon="34.9670700">
<ele>628.209961</ele>
<time>2024-03-15T16:01:30.670Z</time>
</trkpt>
<trkpt lat="30.9660800" lon="34.9670400">
<ele>630.080017</ele>
<time>2024-03-15T16:01:30.670Z</time>
</trkpt>
<trkpt lat="30.9659900" lon="34.9664800">
<ele>624.899963</ele>
<time>2024-03-15T16:01:30.670Z</time>
</trkpt>
<trkpt lat="30.9660200" lon="34.9660300">
<ele>619.010010</ele>
<time>2024-03-15T16:01:30.670Z</time>
</trkpt>
<trkpt lat="30.9659900" lon="34.9659100">
<ele>618.039978</ele>
<time>2024-03-15T16:01:30.670Z</time>
</trkpt>
<trkpt lat="30.9656400" lon="34.9659300">
<ele>622.540039</ele>
<time>2024-03-15T16:01:30.670Z</time>
</trkpt>
<trkpt lat="30.9652800" lon="34.9659200">
<ele>622.010010</ele>
<time>2024-03-15T16:01:30.670Z</time>
</trkpt>
<trkpt lat="30.9651100" lon="34.9659000">
<ele>620.190002</ele>
<time>2024-03-15T16:01:30.670Z</time>
</trkpt>
<trkpt lat="30.9650900" lon="34.9656700">
<ele>619.190002</ele>
<time>2024-03-15T16:01:30.670Z</time>
</trkpt>
<trkpt lat="30.9651600" lon="34.9651300">
<ele>618.049988</ele>
<time>2024-03-15T16:01:30.670Z</time>
</trkpt>
<trkpt lat="30.9651700" lon="34.9648100">
<ele>616.559998</ele>
<time>2024-03-15T16:01:30.670Z</time>
</trkpt>
<trkpt lat="30.9647000" lon="34.9648200">
<ele>618.780029</ele>
<time>2024-03-15T16:01:30.670Z</time>
</trkpt>
<trkpt lat="30.9643400" lon="34.9648000">
<ele>626.489990</ele>
<time>2024-03-15T16:01:30.670Z</time>
</trkpt>
<trkpt lat="30.9642900" lon="34.9647800">
<ele>628.119995</ele>
<time>2024-03-15T16:01:30.670Z</time>
</trkpt>
<trkpt lat="30.9641400" lon="34.9644900">
<ele>631.630005</ele>
<time>2024-03-15T16:01:30.670Z</time>
</trkpt>
<trkpt lat="30.9641300" lon="34.9641700">
<ele>632.259949</ele>
<time>2024-03-15T16:01:30.670Z</time>
</trkpt>
<trkpt lat="30.9641900" lon="34.9638200">
<ele>631.049988</ele>
<time>2024-03-15T16:01:30.670Z</time>
</trkpt>
<trkpt lat="30.9641900" lon="34.9631200">
<ele>637.570007</ele>
<time>2024-03-15T16:01:30.670Z</time>
</trkpt>
<trkpt lat="30.9643300" lon="34.9627900">
<ele>635.909973</ele>
<time>2024-03-15T16:01:30.670Z</time>
</trkpt>
<trkpt lat="30.9644500" lon="34.9627500">
<ele>635.790039</ele>
<time>2024-03-15T16:01:30.670Z</time>
</trkpt>
<trkpt lat="30.9647500" lon="34.9627600">
<ele>629.880005</ele>
<time>2024-03-15T16:01:30.670Z</time>
</trkpt>
<trkpt lat="30.9648800" lon="34.9627300">
<ele>625.690002</ele>
<time>2024-03-15T16:01:30.670Z</time>
</trkpt>
<trkpt lat="30.9652800" lon="34.9622300">
<ele>619.049988</ele>
<time>2024-03-15T16:01:30.670Z</time>
</trkpt>
<trkpt lat="30.9654100" lon="34.9621900">
<ele>619.970032</ele>
<time>2024-03-15T16:01:30.670Z</time>
</trkpt>
<trkpt lat="30.9654400" lon="34.9621500">
<ele>619.669983</ele>
<time>2024-03-15T16:01:30.670Z</time>
</trkpt>
<trkpt lat="30.9654600" lon="34.9620400">
<ele>618.140015</ele>
<time>2024-03-15T16:01:30.670Z</time>
</trkpt>
<trkpt lat="30.9654600" lon="34.9616800">
<ele>613.150024</ele>
<time>2024-03-15T16:01:30.670Z</time>
</trkpt>
<trkpt lat="30.9654800" lon="34.9612200">
<ele>609.690002</ele>
<time>2024-03-15T16:01:30.670Z</time>
</trkpt>
<trkpt lat="30.9655100" lon="34.9608500">
<ele>606.169983</ele>
<time>2024-03-15T16:01:30.670Z</time>
</trkpt>
<trkpt lat="30.9655000" lon="34.9602200">
<ele>602.669983</ele>
<time>2024-03-15T16:01:30.670Z</time>
</trkpt>
<trkpt lat="30.9655200" lon="34.9596100">
<ele>597.750000</ele>
<time>2024-03-15T16:01:30.670Z</time>
</trkpt>
<trkpt lat="30.9655300" lon="34.9590000">
<ele>584.940002</ele>
<time>2024-03-15T16:01:30.670Z</time>
</trkpt>
<trkpt lat="30.9656500" lon="34.9587400">
<ele>581.000000</ele>
<time>2024-03-15T16:01:30.670Z</time>
</trkpt>
<trkpt lat="30.9658700" lon="34.9584700">
<ele>578.940002</ele>
<time>2024-03-15T16:01:30.670Z</time>
</trkpt>
<trkpt lat="30.9659100" lon="34.9580400">
<ele>578.950012</ele>
<time>2024-03-15T16:01:30.670Z</time>
</trkpt>
<trkpt lat="30.9663400" lon="34.9575200">
<ele>572.099976</ele>
<time>2024-03-15T16:01:30.670Z</time>
</trkpt>
<trkpt lat="30.9665200" lon="34.9574700">
<ele>571.470032</ele>
<time>2024-03-15T16:01:30.670Z</time>
</trkpt>
<trkpt lat="30.9665800" lon="34.9574200">
<ele>570.809998</ele>
<time>2024-03-15T16:01:30.670Z</time>
</trkpt>
<trkpt lat="30.9668800" lon="34.9568400">
<ele>565.700012</ele>
<time>2024-03-15T16:01:30.670Z</time>
</trkpt>
<trkpt lat="30.9669800" lon="34.9567600">
<ele>564.359985</ele>
<time>2024-03-15T16:01:30.670Z</time>
</trkpt>
<trkpt lat="30.9673800" lon="34.9565900">
<ele>552.609985</ele>
<time>2024-03-15T16:01:30.670Z</time>
</trkpt>
<trkpt lat="30.9679100" lon="34.9565800">
<ele>544.779968</ele>
<time>2024-03-15T16:01:30.670Z</time>
</trkpt>
<trkpt lat="30.9684300" lon="34.9565600">
<ele>543.090027</ele>
<time>2024-03-15T16:01:30.670Z</time>
</trkpt>
<trkpt lat="30.9692600" lon="34.9564000">
<ele>549.369995</ele>
<time>2024-03-15T16:01:30.670Z</time>
</trkpt>
<trkpt lat="30.9693100" lon="34.9563700">
<ele>550.500000</ele>
<time>2024-03-15T16:01:30.670Z</time>
</trkpt>
<trkpt lat="30.9693800" lon="34.9562800">
<ele>551.260010</ele>
<time>2024-03-15T16:01:30.670Z</time>
</trkpt>
<trkpt lat="30.9694800" lon="34.9560700">
<ele>551.210022</ele>
<time>2024-03-15T16:01:30.670Z</time>
</trkpt>
<trkpt lat="30.9696700" lon="34.9558500">
<ele>551.890015</ele>
<time>2024-03-15T16:01:30.670Z</time>
</trkpt>
<trkpt lat="30.9697000" lon="34.9556300">
<ele>553.080017</ele>
<time>2024-03-15T16:01:30.670Z</time>
</trkpt>
<trkpt lat="30.9697100" lon="34.9552000">
<ele>552.040039</ele>
<time>2024-03-15T16:01:30.670Z</time>
</trkpt>
<trkpt lat="30.9696600" lon="34.9544500">
<ele>548.360046</ele>
<time>2024-03-15T16:01:30.670Z</time>
</trkpt>
<trkpt lat="30.9695400" lon="34.9540700">
<ele>552.190002</ele>
<time>2024-03-15T16:01:30.670Z</time>
</trkpt>
<trkpt lat="30.9695200" lon="34.9537200">
<ele>555.030029</ele>
<time>2024-03-15T16:01:30.670Z</time>
</trkpt>
<trkpt lat="30.9693600" lon="34.9532500">
<ele>564.090027</ele>
<time>2024-03-15T16:01:30.670Z</time>
</trkpt>
<trkpt lat="30.9693300" lon="34.9526500">
<ele>566.919983</ele>
<time>2024-03-15T16:01:30.670Z</time>
</trkpt>
<trkpt lat="30.9692000" lon="34.9523400">
<ele>564.849976</ele>
<time>2024-03-15T16:01:30.670Z</time>
</trkpt>
<trkpt lat="30.9690900" lon="34.9522100">
<ele>564.359985</ele>
<time>2024-03-15T16:01:30.670Z</time>
</trkpt>
<trkpt lat="30.9688600" lon="34.9520900">
<ele>563.529968</ele>
<time>2024-03-15T16:01:30.670Z</time>
</trkpt>
<trkpt lat="30.9688600" lon="34.9518400">
<ele>562.609985</ele>
<time>2024-03-15T16:01:30.670Z</time>
</trkpt>
<trkpt lat="30.9687200" lon="34.9511800">
<ele>567.210022</ele>
<time>2024-03-15T16:01:30.670Z</time>
</trkpt>
<trkpt lat="30.9685700" lon="34.9505100">
<ele>575.209961</ele>
<time>2024-03-15T16:01:30.670Z</time>
</trkpt>
<trkpt lat="30.9682000" lon="34.9498300">
<ele>572.020020</ele>
<time>2024-03-15T16:01:30.670Z</time>
</trkpt>
<trkpt lat="30.9681000" lon="34.9495600">
<ele>568.809998</ele>
<time>2024-03-15T16:01:30.670Z</time>
</trkpt>
<trkpt lat="30.9679400" lon="34.9492400">
<ele>562.450012</ele>
<time>2024-03-15T16:01:30.670Z</time>
</trkpt>
<trkpt lat="30.9678200" lon="34.9486500">
<ele>556.309998</ele>
<time>2024-03-15T16:01:30.670Z</time>
</trkpt>
<trkpt lat="30.9678300" lon="34.9483800">
<ele>555.830017</ele>
<time>2024-03-15T16:01:30.670Z</time>
</trkpt>
<trkpt lat="30.9680100" lon="34.9481400">
<ele>555.089966</ele>
<time>2024-03-15T16:01:30.670Z</time>
</trkpt>
<trkpt lat="30.9680200" lon="34.9480600">
<ele>553.820007</ele>
<time>2024-03-15T16:01:30.670Z</time>
</trkpt>
<trkpt lat="30.9680300" lon="34.9474100">
<ele>548.979980</ele>
<time>2024-03-15T16:01:30.670Z</time>
</trkpt>
<trkpt lat="30.9680200" lon="34.9468500">
<ele>550.169983</ele>
<time>2024-03-15T16:01:30.670Z</time>
</trkpt>
<trkpt lat="30.9680300" lon="34.9463300">
<ele>547.769958</ele>
<time>2024-03-15T16:01:30.670Z</time>
</trkpt>
<trkpt lat="30.9681000" lon="34.9457300">
<ele>546.109985</ele>
<time>2024-03-15T16:01:30.670Z</time>
</trkpt>
<trkpt lat="30.9681700" lon="34.9451200">
<ele>539.710022</ele>
<time>2024-03-15T16:01:30.670Z</time>
</trkpt>
<trkpt lat="30.9686900" lon="34.9443500">
<ele>542.820007</ele>
<time>2024-03-15T16:01:30.670Z</time>
</trkpt>
<trkpt lat="30.9687200" lon="34.9440000">
<ele>546.710022</ele>
<time>2024-03-15T16:01:30.670Z</time>
</trkpt>
<trkpt lat="30.9687200" lon="34.9431700">
<ele>544.580017</ele>
<time>2024-03-15T16:01:30.670Z</time>
</trkpt>
<trkpt lat="30.9687500" lon="34.9428800">
<ele>539.020020</ele>
<time>2024-03-15T16:01:30.670Z</time>
</trkpt>
<trkpt lat="30.9688800" lon="34.9427200">
<ele>537.729980</ele>
<time>2024-03-15T16:01:30.670Z</time>
</trkpt>
<trkpt lat="30.9691300" lon="34.9426800">
<ele>539.130005</ele>
<time>2024-03-15T16:01:30.670Z</time>
</trkpt>
<trkpt lat="30.9695400" lon="34.9426600">
<ele>533.160034</ele>
<time>2024-03-15T16:01:30.670Z</time>
</trkpt>
<trkpt lat="30.9700400" lon="34.9426600">
<ele>524.380005</ele>
<time>2024-03-15T16:01:30.670Z</time>
</trkpt>
<trkpt lat="30.9703600" lon="34.9426500">
<ele>521.460022</ele>
<time>2024-03-15T16:01:30.670Z</time>
</trkpt>
<trkpt lat="30.9706400" lon="34.9426300">
<ele>524.359985</ele>
<time>2024-03-15T16:01:30.670Z</time>
</trkpt>
<trkpt lat="30.9708600" lon="34.9425500">
<ele>526.029968</ele>
<time>2024-03-15T16:01:30.670Z</time>
</trkpt>
<trkpt lat="30.9714700" lon="34.9424100">
<ele>532.130005</ele>
<time>2024-03-15T16:01:30.670Z</time>
</trkpt>
<trkpt lat="30.9720000" lon="34.9424100">
<ele>533.650024</ele>
<time>2024-03-15T16:01:30.670Z</time>
</trkpt>
<trkpt lat="30.9724500" lon="34.9425300">
<ele>526.940002</ele>
<time>2024-03-15T16:01:30.670Z</time>
</trkpt>
<trkpt lat="30.9726600" lon="34.9425300">
<ele>523.460022</ele>
<time>2024-03-15T16:01:30.670Z</time>
</trkpt>
<trkpt lat="30.9731100" lon="34.9424900">
<ele>520.380005</ele>
<time>2024-03-15T16:01:30.670Z</time>
</trkpt>
<trkpt lat="30.9735600" lon="34.9424600">
<ele>522.410034</ele>
<time>2024-03-15T16:01:30.670Z</time>
</trkpt>
<trkpt lat="30.9741700" lon="34.9424700">
<ele>528.410034</ele>
<time>2024-03-15T16:01:30.670Z</time>
</trkpt>
<trkpt lat="30.9743000" lon="34.9424800">
<ele>527.330017</ele>
<time>2024-03-15T16:01:30.670Z</time>
</trkpt>
<trkpt lat="30.9745900" lon="34.9427000">
<ele>522.989990</ele>
<time>2024-03-15T16:01:30.670Z</time>
</trkpt>
<trkpt lat="30.9748900" lon="34.9428800">
<ele>520.109985</ele>
<time>2024-03-15T16:01:30.670Z</time>
</trkpt>
<trkpt lat="30.9753500" lon="34.9429500">
<ele>514.739990</ele>
<time>2024-03-15T16:01:30.670Z</time>
</trkpt>
<trkpt lat="30.9754000" lon="34.9429800">
<ele>514.359985</ele>
<time>2024-03-15T16:01:30.670Z</time>
</trkpt>
<trkpt lat="30.9754600" lon="34.9431000">
<ele>512.570007</ele>
<time>2024-03-15T16:01:30.670Z</time>
</trkpt>
<trkpt lat="30.9754700" lon="34.9435500">
<ele>514.179993</ele>
<time>2024-03-15T16:01:30.670Z</time>
</trkpt>
<trkpt lat="30.9755200" lon="34.9438500">
<ele>518.529968</ele>
<time>2024-03-15T16:01:30.670Z</time>
</trkpt>
<trkpt lat="30.9756500" lon="34.9438600">
<ele>518.760010</ele>
<time>2024-03-15T16:01:30.670Z</time>
</trkpt>
<trkpt lat="30.9757500" lon="34.9438500">
<ele>518.929993</ele>
<time>2024-03-15T16:01:30.670Z</time>
</trkpt>
<trkpt lat="30.9762300" lon="34.9433700">
<ele>524.409973</ele>
<time>2024-03-15T16:01:30.670Z</time>
</trkpt>
<trkpt lat="30.9767000" lon="34.9428800">
<ele>517.220032</ele>
<time>2024-03-15T16:01:30.670Z</time>
</trkpt>
<trkpt lat="30.9767900" lon="34.9428200">
<ele>515.220032</ele>
<time>2024-03-15T16:01:30.670Z</time>
</trkpt>
<trkpt lat="30.9771100" lon="34.9427400">
<ele>512.729980</ele>
<time>2024-03-15T16:01:30.670Z</time>
</trkpt>
<trkpt lat="30.9771800" lon="34.9427000">
<ele>513.130005</ele>
<time>2024-03-15T16:01:30.670Z</time>
</trkpt>
<trkpt lat="30.9774700" lon="34.9422700">
<ele>512.179993</ele>
<time>2024-03-15T16:01:30.670Z</time>
</trkpt>
<trkpt lat="30.9772900" lon="34.9418300">
<ele>520.279968</ele>
<time>2024-03-15T16:01:30.670Z</time>
</trkpt>
<trkpt lat="30.9771900" lon="34.9417000">
<ele>523.890015</ele>
<time>2024-03-15T16:01:30.670Z</time>
</trkpt>
<trkpt lat="30.9768800" lon="34.9415800">
<ele>526.709961</ele>
<time>2024-03-15T16:01:30.670Z</time>
</trkpt>
<trkpt lat="30.9767800" lon="34.9414600">
<ele>527.200012</ele>
<time>2024-03-15T16:01:30.670Z</time>
</trkpt>
<trkpt lat="30.9767100" lon="34.9411300">
<ele>527.010010</ele>
<time>2024-03-15T16:01:30.670Z</time>
</trkpt>
<trkpt lat="30.9767000" lon="34.9408000">
<ele>524.289978</ele>
<time>2024-03-15T16:01:30.670Z</time>
</trkpt>
<trkpt lat="30.9766400" lon="34.9405100">
<ele>519.309998</ele>
<time>2024-03-15T16:01:30.670Z</time>
</trkpt>
<trkpt lat="30.9764400" lon="34.9404700">
<ele>518.959961</ele>
<time>2024-03-15T16:01:30.670Z</time>
</trkpt>
<trkpt lat="30.9763600" lon="34.9404200">
<ele>518.839966</ele>
<time>2024-03-15T16:01:30.670Z</time>
</trkpt>
<trkpt lat="30.9762800" lon="34.9401500">
<ele>519.639954</ele>
<time>2024-03-15T16:01:30.670Z</time>
</trkpt>
<trkpt lat="30.9760900" lon="34.9396500">
<ele>520.450012</ele>
<time>2024-03-15T16:01:30.670Z</time>
</trkpt>
<trkpt lat="30.9760800" lon="34.9394300">
<ele>519.260010</ele>
<time>2024-03-15T16:01:30.670Z</time>
</trkpt>
<trkpt lat="30.9760800" lon="34.9390300">
<ele>516.130005</ele>
<time>2024-03-15T16:01:30.670Z</time>
</trkpt>
<trkpt lat="30.9761100" lon="34.9388500">
<ele>514.130005</ele>
<time>2024-03-15T16:01:30.670Z</time>
</trkpt>
<trkpt lat="30.9764000" lon="34.9382400">
<ele>510.459991</ele>
<time>2024-03-15T16:01:30.670Z</time>
</trkpt>
<trkpt lat="30.9763800" lon="34.9377400">
<ele>498.319977</ele>
<time>2024-03-15T16:01:30.670Z</time>
</trkpt>
<trkpt lat="30.9766100" lon="34.9374200">
<ele>496.900024</ele>
<time>2024-03-15T16:01:30.670Z</time>
</trkpt>
<trkpt lat="30.9772300" lon="34.9367300">
<ele>506.679993</ele>
<time>2024-03-15T16:01:30.670Z</time>
</trkpt>
<trkpt lat="30.9774000" lon="34.9363000">
<ele>503.049988</ele>
<time>2024-03-15T16:01:30.670Z</time>
</trkpt>
<trkpt lat="30.9774300" lon="34.9359300">
<ele>505.709991</ele>
<time>2024-03-15T16:01:30.670Z</time>
</trkpt>
<trkpt lat="30.9774300" lon="34.9354700">
<ele>505.910004</ele>
<time>2024-03-15T16:01:30.670Z</time>
</trkpt>
<trkpt lat="30.9773600" lon="34.9355000">
<ele>504.880005</ele>
<time>2024-03-15T16:01:30.670Z</time>
</trkpt>
<trkpt lat="30.9772200" lon="34.9352300">
<ele>501.640015</ele>
<time>2024-03-15T16:01:30.670Z</time>
</trkpt>
<trkpt lat="30.9772000" lon="34.9344800">
<ele>501.199982</ele>
<time>2024-03-15T16:01:30.670Z</time>
</trkpt>
<trkpt lat="30.9770800" lon="34.9338100">
<ele>510.589996</ele>
<time>2024-03-15T16:01:30.670Z</time>
</trkpt>
<trkpt lat="30.9770200" lon="34.9329300">
<ele>505.709991</ele>
<time>2024-03-15T16:01:30.670Z</time>
</trkpt>
<trkpt lat="30.9769500" lon="34.9326500">
<ele>505.070007</ele>
<time>2024-03-15T16:01:30.670Z</time>
</trkpt>
<trkpt lat="30.9767400" lon="34.9323200">
<ele>503.260010</ele>
<time>2024-03-15T16:01:30.670Z</time>
</trkpt>
<trkpt lat="30.9767400" lon="34.9320300">
<ele>503.079987</ele>
<time>2024-03-15T16:01:30.670Z</time>
</trkpt>
<trkpt lat="30.9769000" lon="34.9316100">
<ele>506.130005</ele>
<time>2024-03-15T16:01:30.670Z</time>
</trkpt>
<trkpt lat="30.9768800" lon="34.9314800">
<ele>507.319977</ele>
<time>2024-03-15T16:01:30.670Z</time>
</trkpt>
<trkpt lat="30.9768700" lon="34.9314300">
<ele>507.750000</ele>
<time>2024-03-15T16:01:30.670Z</time>
</trkpt>
<trkpt lat="30.9767000" lon="34.9312900">
<ele>507.109985</ele>
<time>2024-03-15T16:01:30.670Z</time>
</trkpt>
<trkpt lat="30.9765600" lon="34.9310600">
<ele>507.229980</ele>
<time>2024-03-15T16:01:30.670Z</time>
</trkpt>
<trkpt lat="30.9761600" lon="34.9301500">
<ele>513.040039</ele>
<time>2024-03-15T16:01:30.670Z</time>
</trkpt>
<trkpt lat="30.9757800" lon="34.9298700">
<ele>510.049988</ele>
<time>2024-03-15T16:01:30.670Z</time>
</trkpt>
<trkpt lat="30.9753900" lon="34.9295900">
<ele>507.309998</ele>
<time>2024-03-15T16:01:30.670Z</time>
</trkpt>
<trkpt lat="30.9750000" lon="34.9291800">
<ele>501.050018</ele>
<time>2024-03-15T16:01:30.670Z</time>
</trkpt>
<trkpt lat="30.9749600" lon="34.9290900">
<ele>499.309998</ele>
<time>2024-03-15T16:01:30.670Z</time>
</trkpt>
<trkpt lat="30.9748100" lon="34.9284400">
<ele>496.829987</ele>
<time>2024-03-15T16:01:30.670Z</time>
</trkpt>
<trkpt lat="30.9747000" lon="34.9278100">
<ele>494.269989</ele>
<time>2024-03-15T16:01:30.670Z</time>
</trkpt>
<trkpt lat="30.9745900" lon="34.9271800">
<ele>493.900024</ele>
<time>2024-03-15T16:01:30.670Z</time>
</trkpt>
<trkpt lat="30.9745400" lon="34.9263600">
<ele>489.820007</ele>
<time>2024-03-15T16:01:30.670Z</time>
</trkpt>
<trkpt lat="30.9744600" lon="34.9254900">
<ele>491.670013</ele>
<time>2024-03-15T16:01:30.670Z</time>
</trkpt>
<trkpt lat="30.9744600" lon="34.9249300">
<ele>490.529999</ele>
<time>2024-03-15T16:01:30.670Z</time>
</trkpt>
<trkpt lat="30.9744600" lon="34.9243600">
<ele>478.669983</ele>
<time>2024-03-15T16:01:30.670Z</time>
</trkpt>
<trkpt lat="30.9745100" lon="34.9240600">
<ele>478.880005</ele>
<time>2024-03-15T16:01:30.670Z</time>
</trkpt>
<trkpt lat="30.9745800" lon="34.9239500">
<ele>479.880005</ele>
<time>2024-03-15T16:01:30.670Z</time>
</trkpt>
<trkpt lat="30.9748700" lon="34.9233900">
<ele>481.400024</ele>
<time>2024-03-15T16:01:30.670Z</time>
</trkpt>
<trkpt lat="30.9751700" lon="34.9228300">
<ele>481.600006</ele>
<time>2024-03-15T16:01:30.670Z</time>
</trkpt>
<trkpt lat="30.9755200" lon="34.9220100">
<ele>479.359985</ele>
<time>2024-03-15T16:01:30.670Z</time>
</trkpt>
<trkpt lat="30.9758500" lon="34.9213800">
<ele>476.119995</ele>
<time>2024-03-15T16:01:30.670Z</time>
</trkpt>
<trkpt lat="30.9761800" lon="34.9206300">
<ele>470.950012</ele>
<time>2024-03-15T16:01:30.670Z</time>
</trkpt>
<trkpt lat="30.9766800" lon="34.9199400">
<ele>478.159973</ele>
<time>2024-03-15T16:01:30.670Z</time>
</trkpt>
<trkpt lat="30.9771100" lon="34.9190900">
<ele>477.550018</ele>
<time>2024-03-15T16:01:30.670Z</time>
</trkpt>
<trkpt lat="30.9773400" lon="34.9184700">
<ele>473.160004</ele>
<time>2024-03-15T16:01:30.670Z</time>
</trkpt>
<trkpt lat="30.9773900" lon="34.9181600">
<ele>471.850006</ele>
<time>2024-03-15T16:01:30.670Z</time>
</trkpt>
<trkpt lat="30.9774200" lon="34.9177900">
<ele>470.199982</ele>
<time>2024-03-15T16:01:30.670Z</time>
</trkpt>
<trkpt lat="30.9773200" lon="34.9175800">
<ele>469.269989</ele>
<time>2024-03-15T16:01:30.670Z</time>
</trkpt>
<trkpt lat="30.9771500" lon="34.9175400">
<ele>469.930023</ele>
<time>2024-03-15T16:01:30.670Z</time>
</trkpt>
<trkpt lat="30.9770900" lon="34.9173300">
<ele>471.519989</ele>
<time>2024-03-15T16:01:30.670Z</time>
</trkpt>
<trkpt lat="30.9771200" lon="34.9169900">
<ele>473.140015</ele>
<time>2024-03-15T16:01:30.670Z</time>
</trkpt>
<trkpt lat="30.9770300" lon="34.9167200">
<ele>474.709991</ele>
<time>2024-03-15T16:01:30.670Z</time>
</trkpt>
<trkpt lat="30.9770000" lon="34.9164600">
<ele>472.119995</ele>
<time>2024-03-15T16:01:30.670Z</time>
</trkpt>
<trkpt lat="30.9769700" lon="34.9162600">
<ele>470.629974</ele>
<time>2024-03-15T16:01:30.670Z</time>
</trkpt>
<trkpt lat="30.9769900" lon="34.9160000">
<ele>470.100006</ele>
<time>2024-03-15T16:01:30.670Z</time>
</trkpt>
<trkpt lat="30.9768600" lon="34.9153700">
<ele>471.099976</ele>
<time>2024-03-15T16:01:30.670Z</time>
</trkpt>
<trkpt lat="30.9772400" lon="34.9149200">
<ele>468.569977</ele>
<time>2024-03-15T16:01:30.670Z</time>
</trkpt>
<trkpt lat="30.9776200" lon="34.9144700">
<ele>464.880005</ele>
<time>2024-03-15T16:01:30.670Z</time>
</trkpt>
<trkpt lat="30.9778000" lon="34.9139400">
<ele>467.280029</ele>
<time>2024-03-15T16:01:30.670Z</time>
</trkpt>
<trkpt lat="30.9778200" lon="34.9138800">
<ele>467.299988</ele>
<time>2024-03-15T16:01:30.670Z</time>
</trkpt>
<trkpt lat="30.9778200" lon="34.9138800">
<ele>467.299988</ele>
<time>2024-03-15T16:01:30.670Z</time>
</trkpt>
<trkpt lat="30.9778300" lon="34.9138800">
<ele>467.119995</ele>
<time>2024-03-15T16:01:30.670Z</time>
</trkpt>
<trkpt lat="30.9780300" lon="34.9133600">
<ele>466.110016</ele>
<time>2024-03-15T16:01:30.670Z</time>
</trkpt>
<trkpt lat="30.9781900" lon="34.9129600">
<ele>464.199982</ele>
<time>2024-03-15T16:01:30.670Z</time>
</trkpt>
<trkpt lat="30.9782000" lon="34.9127700">
<ele>463.359985</ele>
<time>2024-03-15T16:01:30.670Z</time>
</trkpt>
<trkpt lat="30.9782100" lon="34.9124000">
<ele>458.930023</ele>
<time>2024-03-15T16:01:30.670Z</time>
</trkpt>
<trkpt lat="30.9782500" lon="34.9123600">
<ele>457.430023</ele>
<time>2024-03-15T16:01:30.670Z</time>
</trkpt>
<trkpt lat="30.9783000" lon="34.9122900">
<ele>454.699982</ele>
<time>2024-03-15T16:01:30.670Z</time>
</trkpt>
<trkpt lat="30.9786200" lon="34.9119000">
<ele>455.690002</ele>
<time>2024-03-15T16:01:30.670Z</time>
</trkpt>
<trkpt lat="30.9788700" lon="34.9113000">
<ele>460.980011</ele>
<time>2024-03-15T16:01:30.670Z</time>
</trkpt>
<trkpt lat="30.9789500" lon="34.9107000">
<ele>464.549988</ele>
<time>2024-03-15T16:01:30.670Z</time>
</trkpt>
<trkpt lat="30.9793200" lon="34.9102000">
<ele>465.799988</ele>
<time>2024-03-15T16:01:30.670Z</time>
</trkpt>
<trkpt lat="30.9795900" lon="34.9098300">
<ele>469.000000</ele>
<time>2024-03-15T16:01:30.670Z</time>
</trkpt>
<trkpt lat="30.9799800" lon="34.9091600">
<ele>471.869995</ele>
<time>2024-03-15T16:01:30.670Z</time>
</trkpt>
<trkpt lat="30.9800500" lon="34.9091200">
<ele>472.140015</ele>
<time>2024-03-15T16:01:30.670Z</time>
</trkpt>
<trkpt lat="30.9800900" lon="34.9090500">
<ele>472.279999</ele>
<time>2024-03-15T16:01:30.670Z</time>
</trkpt>
<trkpt lat="30.9804200" lon="34.9083200">
<ele>468.489990</ele>
<time>2024-03-15T16:01:30.670Z</time>
</trkpt>
<trkpt lat="30.9805100" lon="34.9079800">
<ele>467.419983</ele>
<time>2024-03-15T16:01:30.670Z</time>
</trkpt>
<trkpt lat="30.9805900" lon="34.9076700">
<ele>462.720001</ele>
<time>2024-03-15T16:01:30.670Z</time>
</trkpt>
<trkpt lat="30.9806400" lon="34.9075400">
<ele>460.660004</ele>
<time>2024-03-15T16:01:30.670Z</time>
</trkpt>
<trkpt lat="30.9807700" lon="34.9072900">
<ele>459.470001</ele>
<time>2024-03-15T16:01:30.670Z</time>
</trkpt>
<trkpt lat="30.9808500" lon="34.9071700">
<ele>457.619995</ele>
<time>2024-03-15T16:01:30.670Z</time>
</trkpt>
<trkpt lat="30.9811900" lon="34.9068200">
<ele>458.939972</ele>
<time>2024-03-15T16:01:30.670Z</time>
</trkpt>
<trkpt lat="30.9812800" lon="34.9067100">
<ele>460.470001</ele>
<time>2024-03-15T16:01:30.670Z</time>
</trkpt>
<trkpt lat="30.9814600" lon="34.9063800">
<ele>460.269989</ele>
<time>2024-03-15T16:01:30.670Z</time>
</trkpt>
<trkpt lat="30.9815100" lon="34.9062300">
<ele>460.929993</ele>
<time>2024-03-15T16:01:30.670Z</time>
</trkpt>
<trkpt lat="30.9821100" lon="34.9055100">
<ele>463.709991</ele>
<time>2024-03-15T16:01:30.670Z</time>
</trkpt>
<trkpt lat="30.9821700" lon="34.9054100">
<ele>466.479980</ele>
<time>2024-03-15T16:01:30.670Z</time>
</trkpt>
<trkpt lat="30.9822100" lon="34.9052900">
<ele>469.559998</ele>
<time>2024-03-15T16:01:30.670Z</time>
</trkpt>
<trkpt lat="30.9822500" lon="34.9050600">
<ele>473.709991</ele>
<time>2024-03-15T16:01:30.670Z</time>
</trkpt>
<trkpt lat="30.9822700" lon="34.9050100">
<ele>474.190002</ele>
<time>2024-03-15T16:01:30.670Z</time>
</trkpt>
<trkpt lat="30.9823300" lon="34.9048900">
<ele>471.380005</ele>
<time>2024-03-15T16:01:30.670Z</time>
</trkpt>
<trkpt lat="30.9824800" lon="34.9049600">
<ele>470.690002</ele>
<time>2024-03-15T16:01:30.670Z</time>
</trkpt>
<trkpt lat="30.9824800" lon="34.9049600">
<ele>470.690002</ele>
<time>2024-03-15T16:01:30.670Z</time>
</trkpt>
<trkpt lat="30.9824800" lon="34.9049600">
<ele>470.690002</ele>
<time>2024-03-15T16:01:30.670Z</time>
</trkpt>
<trkpt lat="30.9830800" lon="34.9052500">
<ele>482.760010</ele>
<time>2024-03-15T16:01:30.670Z</time>
</trkpt>
<trkpt lat="30.9834900" lon="34.9055400">
<ele>480.139984</ele>
<time>2024-03-15T16:01:30.670Z</time>
</trkpt>
<trkpt lat="30.9838900" lon="34.9058300">
<ele>481.820007</ele>
<time>2024-03-15T16:01:30.670Z</time>
</trkpt>
<trkpt lat="30.9842100" lon="34.9060900">
<ele>475.339996</ele>
<time>2024-03-15T16:01:30.670Z</time>
</trkpt>
<trkpt lat="30.9844000" lon="34.9062800">
<ele>474.190002</ele>
<time>2024-03-15T16:01:30.670Z</time>
</trkpt>
<trkpt lat="30.9848500" lon="34.9068800">
<ele>467.679993</ele>
<time>2024-03-15T16:01:30.670Z</time>
</trkpt>
<trkpt lat="30.9852800" lon="34.9074400">
<ele>469.000000</ele>
<time>2024-03-15T16:01:30.670Z</time>
</trkpt>
<trkpt lat="30.9857000" lon="34.9080000">
<ele>467.920013</ele>
<time>2024-03-15T16:01:30.670Z</time>
</trkpt>
<trkpt lat="30.9860600" lon="34.9084300">
<ele>468.679993</ele>
<time>2024-03-15T16:01:30.670Z</time>
</trkpt>
<trkpt lat="30.9864100" lon="34.9088600">
<ele>468.619995</ele>
<time>2024-03-15T16:01:30.670Z</time>
</trkpt>
<trkpt lat="30.9867700" lon="34.9092900">
<ele>469.500000</ele>
<time>2024-03-15T16:01:30.670Z</time>
</trkpt>
<trkpt lat="30.9868200" lon="34.9093600">
<ele>470.470001</ele>
<time>2024-03-15T16:01:30.670Z</time>
</trkpt>
<trkpt lat="30.9868200" lon="34.9093600">
<ele>470.470001</ele>
<time>2024-03-15T16:01:30.670Z</time>
</trkpt>
<trkpt lat="30.9868200" lon="34.9093600">
<ele>470.470001</ele>
<time>2024-03-15T16:01:30.670Z</time>
</trkpt>
<trkpt lat="30.9873300" lon="34.9099100">
<ele>475.610016</ele>
<time>2024-03-15T16:01:30.670Z</time>
</trkpt>
<trkpt lat="30.9877300" lon="34.9102000">
<ele>470.740021</ele>
<time>2024-03-15T16:01:30.670Z</time>
</trkpt>
<trkpt lat="30.9881300" lon="34.9104800">
<ele>475.529999</ele>
<time>2024-03-15T16:01:30.670Z</time>
</trkpt>
<trkpt lat="30.9885400" lon="34.9107700">
<ele>473.109985</ele>
<time>2024-03-15T16:01:30.670Z</time>
</trkpt>
<trkpt lat="30.9889400" lon="34.9110500">
<ele>468.839996</ele>
<time>2024-03-15T16:01:30.670Z</time>
</trkpt>
<trkpt lat="30.9893400" lon="34.9113400">
<ele>457.670013</ele>
<time>2024-03-15T16:01:30.670Z</time>
</trkpt>
<trkpt lat="30.9896100" lon="34.9115700">
<ele>454.380005</ele>
<time>2024-03-15T16:01:30.670Z</time>
</trkpt>
<trkpt lat="30.9896100" lon="34.9115700">
<ele>454.380005</ele>
<time>2024-03-15T16:01:30.670Z</time>
</trkpt>
<trkpt lat="30.9896100" lon="34.9115800">
<ele>454.459991</ele>
<time>2024-03-15T16:01:30.670Z</time>
</trkpt>
<trkpt lat="30.9896400" lon="34.9116200">
<ele>454.500000</ele>
<time>2024-03-15T16:01:30.670Z</time>
</trkpt>
<trkpt lat="30.9897300" lon="34.9117200">
<ele>453.989990</ele>
<time>2024-03-15T16:01:30.670Z</time>
</trkpt>
<trkpt lat="30.9897600" lon="34.9117800">
<ele>453.940002</ele>
<time>2024-03-15T16:01:30.670Z</time>
</trkpt>
<trkpt lat="30.9898100" lon="34.9118600">
<ele>453.779999</ele>
<time>2024-03-15T16:01:30.670Z</time>
</trkpt>
<trkpt lat="30.9898500" lon="34.9118900">
<ele>453.629974</ele>
<time>2024-03-15T16:01:30.670Z</time>
</trkpt>
<trkpt lat="30.9898900" lon="34.9119200">
<ele>453.450012</ele>
<time>2024-03-15T16:01:30.670Z</time>
</trkpt>
<trkpt lat="30.9899500" lon="34.9119400">
<ele>453.190002</ele>
<time>2024-03-15T16:01:30.670Z</time>
</trkpt>
<trkpt lat="30.9899800" lon="34.9119400">
<ele>453.089996</ele>
<time>2024-03-15T16:01:30.670Z</time>
</trkpt>
<trkpt lat="30.9900300" lon="34.9119400">
<ele>453.339996</ele>
<time>2024-03-15T16:01:30.670Z</time>
</trkpt>
<trkpt lat="30.9900700" lon="34.9119400">
<ele>453.779999</ele>
<time>2024-03-15T16:01:30.670Z</time>
</trkpt>
<trkpt lat="30.9901300" lon="34.9119100">
<ele>454.589996</ele>
<time>2024-03-15T16:01:30.670Z</time>
</trkpt>
<trkpt lat="30.9900800" lon="34.9119700">
<ele>453.690002</ele>
<time>2024-03-15T16:01:30.670Z</time>
</trkpt>
<trkpt lat="30.9900400" lon="34.9120200">
<ele>453.040009</ele>
<time>2024-03-15T16:01:30.670Z</time>
</trkpt>
<trkpt lat="30.9900100" lon="34.9120700">
<ele>452.609985</ele>
<time>2024-03-15T16:01:30.670Z</time>
</trkpt>
<trkpt lat="30.9899900" lon="34.9121200">
<ele>452.429993</ele>
<time>2024-03-15T16:01:30.670Z</time>
</trkpt>
<trkpt lat="30.9899700" lon="34.9121900">
<ele>452.320007</ele>
<time>2024-03-15T16:01:30.670Z</time>
</trkpt>
<trkpt lat="30.9899800" lon="34.9121900">
<ele>452.250000</ele>
<time>2024-03-15T16:01:30.670Z</time>
</trkpt>
</trkseg>
</trk>
</gpx>
